Wetterdaten: Montag, 19.12.2022
Datum Zeit Temp. Aussen Temp. o. S. Temp +5cm Feuchte Auss Luftdruck Regen Sonnenschein Regendauer Solar Windben Empfang
19.12.2022 00:00 -0,8 C -1,7 C -4,4 C 91 % 1022,1 hPa 0,0 l/m 0 min 2 min 0 W/m 22,5 km/h (4 Bft) 100,00 %
19.12.2022 00:02 -0,7 C -1,7 C -4,4 C 91 % 1022,1 hPa 0,0 l/m 0 min 2 min 0 W/m 22,5 km/h (4 Bft) 97,30 %
19.12.2022 00:04 -0,7 C -1,7 C -4,4 C 91 % 1022,1 hPa 0,0 l/m 0 min 2 min 0 W/m 25,7 km/h (4 Bft) 100,00 %
19.12.2022 00:08 -0,7 C -1,7 C -4,4 C 91 % 1022,1 hPa 0,0 l/m 0 min 4 min 0 W/m 25,7 km/h (4 Bft) 96,88 %
19.12.2022 00:10 -0,7 C -1,7 C -4,4 C 91 % 1022,1 hPa 0,0 l/m 0 min 2 min 0 W/m 22,5 km/h (4 Bft) 95,74 %
19.12.2022 00:12 -0,7 C -1,7 C -4,4 C 91 % 1022,1 hPa 0,0 l/m 0 min 2 min 0 W/m 19,3 km/h (3 Bft) 95,74 %
19.12.2022 00:14 -0,7 C -1,7 C -4,4 C 91 % 1022,0 hPa 0,0 l/m 0 min 2 min 0 W/m 25,7 km/h (4 Bft) 100,00 %
19.12.2022 00:16 -0,7 C -1,7 C -4,4 C 92 % 1022,0 hPa 0,0 l/m 0 min 2 min 0 W/m 25,7 km/h (4 Bft) 100,00 %
19.12.2022 00:18 -0,6 C -1,7 C -4,4 C 92 % 1022,0 hPa 0,0 l/m 0 min 2 min 0 W/m 25,7 km/h (4 Bft) 97,87 %
19.12.2022 00:20 -0,6 C -1,1 C -4,4 C 92 % 1022,0 hPa 0,0 l/m 0 min 2 min 0 W/m 22,5 km/h (4 Bft) 85,11 %
19.12.2022 00:22 -0,6 C -1,1 C -4,4 C 92 % 1022,0 hPa 0,0 l/m 0 min 2 min 0 W/m 19,3 km/h (3 Bft) 44,68 %
19.12.2022 00:24 -0,6 C -1,1 C -4,4 C 92 % 1021,9 hPa 0,0 l/m 0 min 2 min 0 W/m 19,3 km/h (3 Bft) 87,23 %
19.12.2022 00:26 -0,6 C -1,7 C -3,9 C 92 % 1021,9 hPa 0,0 l/m 0 min 2 min 0 W/m 16,1 km/h (3 Bft) 80,85 %
19.12.2022 00:28 -0,6 C -1,1 C -4,4 C 92 % 1021,8 hPa 0,0 l/m 0 min 2 min 0 W/m 19,3 km/h (3 Bft) 95,65 %
19.12.2022 00:30 -0,6 C -1,1 C -4,4 C 92 % 1021,8 hPa 0,0 l/m 0 min 2 min 0 W/m 29,0 km/h (5 Bft) 95,74 %
19.12.2022 00:32 -0,6 C -1,7 C -4,4 C 92 % 1021,8 hPa 0,0 l/m 0 min 2 min 0 W/m 29,0 km/h (5 Bft) 100,00 %
19.12.2022 00:34 -0,6 C -1,7 C -4,4 C 92 % 1021,8 hPa 0,0 l/m 0 min 2 min 0 W/m 41,8 km/h (6 Bft) 97,87 %
19.12.2022 00:36 -0,6 C -1,7 C -4,4 C 92 % 1021,7 hPa 0,0 l/m 0 min 2 min 0 W/m 25,7 km/h (4 Bft) 95,74 %
19.12.2022 00:38 -0,6 C -1,7 C -4,4 C 92 % 1021,7 hPa 0,0 l/m 0 min 0 min 0 W/m 19,3 km/h (3 Bft) 91,49 %
19.12.2022 00:40 -0,6 C -1,7 C -4,4 C 92 % 1021,6 hPa 0,0 l/m 0 min 0 min 0 W/m 22,5 km/h (4 Bft) 91,49 %
19.12.2022 00:42 -0,6 C -1,7 C -4,4 C 92 % 1021,6 hPa 0,0 l/m 0 min 0 min 0 W/m 22,5 km/h (4 Bft) 93,48 %
19.12.2022 00:44 -0,6 C -1,7 C -4,4 C 92 % 1021,6 hPa 0,0 l/m 0 min 2 min 0 W/m 29,0 km/h (5 Bft) 97,87 %
19.12.2022 00:46 -0,6 C -1,7 C -4,4 C 92 % 1021,5 hPa 0,0 l/m 0 min 0 min 0 W/m 29,0 km/h (5 Bft) 95,74 %
19.12.2022 00:48 -0,6 C -1,1 C -4,4 C 92 % 1021,5 hPa 0,0 l/m 0 min 0 min 0 W/m 29,0 km/h (5 Bft) 95,74 %
19.12.2022 00:50 -0,6 C -1,1 C -4,4 C 92 % 1021,5 hPa 0,0 l/m 0 min 0 min 0 W/m 25,7 km/h (4 Bft) 95,74 %
19.12.2022 00:52 -0,6 C -1,1 C -4,4 C 92 % 1021,5 hPa 0,0 l/m 0 min 2 min 0 W/m 29,0 km/h (5 Bft) 93,62 %
19.12.2022 00:54 -0,5 C -1,1 C -3,9 C 92 % 1021,4 hPa 0,0 l/m 0 min 2 min 0 W/m 22,5 km/h (4 Bft) 95,65 %
19.12.2022 00:56 -0,5 C -1,1 C -4,4 C 92 % 1021,3 hPa 0,0 l/m 0 min 2 min 0 W/m 19,3 km/h (3 Bft) 61,70 %
19.12.2022 00:58 -0,5 C -1,1 C -4,4 C 92 % 1021,3 hPa 0,0 l/m 0 min 2 min 0 W/m 22,5 km/h (4 Bft) 82,98 %
19.12.2022 01:00 -0,4 C -1,1 C -4,4 C 93 % 1021,3 hPa 0,0 l/m 0 min 2 min 0 W/m 22,5 km/h (4 Bft) 92,73 %
19.12.2022 01:02 -0,4 C -1,1 C -4,4 C 93 % 1021,3 hPa 0,0 l/m 0 min 0 min 0 W/m 25,7 km/h (4 Bft) 93,62 %
19.12.2022 01:04 -0,4 C -1,1 C -4,4 C 93 % 1021,3 hPa 0,0 l/m 0 min 2 min 0 W/m 22,5 km/h (4 Bft) 93,02 %
19.12.2022 01:06 -0,4 C -1,1 C -4,4 C 93 % 1021,3 hPa 0,0 l/m 0 min 2 min 0 W/m 22,5 km/h (4 Bft) 93,62 %
19.12.2022 01:08 -0,4 C -1,1 C -4,4 C 93 % 1021,3 hPa 0,0 l/m 0 min 2 min 0 W/m 22,5 km/h (4 Bft) 89,36 %
19.12.2022 01:10 -0,4 C -1,1 C -4,4 C 93 % 1021,3 hPa 0,0 l/m 0 min 0 min 0 W/m 35,4 km/h (5 Bft) 93,48 %
19.12.2022 01:12 -0,4 C -1,1 C -4,4 C 93 % 1021,3 hPa 0,0 l/m 0 min 0 min 0 W/m 25,7 km/h (4 Bft) 91,49 %
19.12.2022 01:14 -0,3 C -1,1 C -4,4 C 93 % 1021,3 hPa 0,0 l/m 0 min 0 min 0 W/m 19,3 km/h (3 Bft) 93,62 %
19.12.2022 01:16 -0,3 C -1,1 C -4,4 C 93 % 1021,3 hPa 0,0 l/m 0 min 0 min 0 W/m 29,0 km/h (5 Bft) 91,49 %
19.12.2022 01:18 -0,3 C -1,1 C -4,4 C 93 % 1021,3 hPa 0,0 l/m 0 min 0 min 0 W/m 41,8 km/h (6 Bft) 93,62 %
19.12.2022 01:20 -0,3 C -1,1 C -4,4 C 93 % 1021,2 hPa 0,0 l/m 0 min 0 min 0 W/m 25,7 km/h (4 Bft) 95,74 %
19.12.2022 01:22 -0,3 C -1,1 C -4,4 C 93 % 1021,2 hPa 0,0 l/m 0 min 2 min 0 W/m 25,7 km/h (4 Bft) 93,62 %
19.12.2022 01:24 -0,3 C -1,1 C -4,4 C 93 % 1021,3 hPa 0,0 l/m 0 min 0 min 0 W/m 25,7 km/h (4 Bft) 93,48 %
19.12.2022 01:26 -0,3 C -1,1 C -4,4 C 93 % 1021,3 hPa 0,0 l/m 0 min 0 min 0 W/m 19,3 km/h (3 Bft) 97,87 %
19.12.2022 01:28 -0,3 C -1,1 C -4,4 C 93 % 1021,2 hPa 0,0 l/m 0 min 0 min 0 W/m 38,6 km/h (5 Bft) 95,74 %
19.12.2022 01:30 -0,3 C -1,1 C -4,4 C 93 % 1021,0 hPa 0,0 l/m 0 min 0 min 0 W/m 29,0 km/h (5 Bft) 95,74 %
19.12.2022 01:32 -0,3 C -1,1 C -4,4 C 93 % 1021,0 hPa 0,0 l/m 0 min 0 min 0 W/m 41,8 km/h (6 Bft) 97,87 %
19.12.2022 01:34 -0,3 C -1,1 C -4,4 C 93 % 1020,8 hPa 0,0 l/m 0 min 0 min 0 W/m 29,0 km/h (5 Bft) 100,00 %
19.12.2022 01:36 -0,3 C -1,1 C -4,4 C 93 % 1020,9 hPa 0,0 l/m 0 min 0 min 0 W/m 19,3 km/h (3 Bft) 100,00 %
19.12.2022 01:38 -0,3 C -1,1 C -4,4 C 93 % 1020,9 hPa 0,0 l/m 0 min 0 min 0 W/m 25,7 km/h (4 Bft) 97,87 %
19.12.2022 01:40 -0,3 C -1,1 C -4,4 C 93 % 1020,9 hPa 0,0 l/m 0 min 0 min 0 W/m 19,3 km/h (3 Bft) 93,62 %
19.12.2022 01:42 -0,3 C -1,1 C -4,4 C 93 % 1020,8 hPa 0,0 l/m 0 min 2 min 0 W/m 19,3 km/h (3 Bft) 100,00 %
19.12.2022 01:44 -0,3 C -1,1 C -3,9 C 93 % 1020,8 hPa 0,0 l/m 0 min 0 min 0 W/m 19,3 km/h (3 Bft) 95,74 %
19.12.2022 01:46 -0,3 C -1,1 C -3,9 C 93 % 1020,9 hPa 0,0 l/m 0 min 0 min 0 W/m 19,3 km/h (3 Bft) 100,00 %
19.12.2022 01:48 -0,2 C -1,1 C -3,9 C 93 % 1020,9 hPa 0,0 l/m 0 min 0 min 0 W/m 25,7 km/h (4 Bft) 100,00 %
19.12.2022 01:50 -0,2 C -1,1 C -3,9 C 93 % 1020,9 hPa 0,0 l/m 0 min 0 min 0 W/m 25,7 km/h (4 Bft) 100,00 %
19.12.2022 01:52 -0,2 C -1,1 C -3,9 C 93 % 1020,8 hPa 0,0 l/m 0 min 0 min 0 W/m 25,7 km/h (4 Bft) 100,00 %
19.12.2022 01:54 -0,2 C -1,1 C -3,9 C 93 % 1020,8 hPa 0,0 l/m 0 min 0 min 0 W/m 29,0 km/h (5 Bft) 100,00 %
19.12.2022 01:56 -0,2 C -1,1 C -3,9 C 93 % 1020,8 hPa 0,0 l/m 0 min 0 min 0 W/m 25,7 km/h (4 Bft) 97,87 %
19.12.2022 01:58 -0,2 C -1,1 C -3,9 C 93 % 1020,7 hPa 0,0 l/m 0 min 0 min 0 W/m 35,4 km/h (5 Bft) 100,00 %
19.12.2022 02:00 -0,2 C -1,1 C -3,9 C 93 % 1020,8 hPa 0,0 l/m 0 min 0 min 0 W/m 22,5 km/h (4 Bft) 97,87 %
19.12.2022 02:02 -0,2 C -1,1 C -3,9 C 93 % 1020,8 hPa 0,0 l/m 0 min 0 min 0 W/m 22,5 km/h (4 Bft) 100,00 %
19.12.2022 02:04 -0,2 C -1,1 C -3,9 C 93 % 1020,7 hPa 0,0 l/m 0 min 0 min 0 W/m 29,0 km/h (5 Bft) 97,87 %
19.12.2022 02:06 -0,2 C -1,1 C -3,9 C 93 % 1020,7 hPa 0,0 l/m 0 min 0 min 0 W/m 16,1 km/h (3 Bft) 100,00 %
19.12.2022 02:08 -0,2 C -1,1 C -3,9 C 93 % 1020,7 hPa 0,0 l/m 0 min 0 min 0 W/m 25,7 km/h (4 Bft) 100,00 %
19.12.2022 02:10 -0,2 C -1,1 C -3,9 C 93 % 1020,7 hPa 0,0 l/m 0 min 0 min 0 W/m 35,4 km/h (5 Bft) 97,87 %
19.12.2022 02:12 -0,2 C -1,1 C -3,9 C 93 % 1020,6 hPa 0,0 l/m 0 min 0 min 0 W/m 19,3 km/h (3 Bft) 100,00 %
19.12.2022 02:17 -0,1 C -1,1 C -3,9 C 94 % 1020,6 hPa 0,0 l/m 0 min 0 min 0 W/m 22,5 km/h (4 Bft) 100,00 %
19.12.2022 02:18 -0,1 C -1,1 C -3,9 C 94 % 1020,6 hPa 0,0 l/m 0 min 0 min 0 W/m 16,1 km/h (3 Bft) 100,00 %
19.12.2022 02:20 -0,1 C -0,6 C -3,9 C 94 % 1020,8 hPa 0,0 l/m 0 min 0 min 0 W/m 25,7 km/h (4 Bft) 100,00 %
19.12.2022 02:22 -0,1 C -0,6 C -3,9 C 94 % 1020,8 hPa 0,0 l/m 0 min 0 min 0 W/m 19,3 km/h (3 Bft) 100,00 %
19.12.2022 02:24 -0,1 C -0,6 C -3,9 C 94 % 1020,7 hPa 0,0 l/m 0 min 0 min 0 W/m 19,3 km/h (3 Bft) 100,00 %
19.12.2022 02:26 -0,1 C -0,6 C -3,9 C 94 % 1020,7 hPa 0,0 l/m 0 min 0 min 0 W/m 22,5 km/h (4 Bft) 100,00 %
19.12.2022 02:28 0,0 C -0,6 C -3,9 C 94 % 1020,6 hPa 0,0 l/m 0 min 2 min 0 W/m 19,3 km/h (3 Bft) 100,00 %
19.12.2022 02:30 0,0 C -0,6 C -3,9 C 94 % 1020,4 hPa 0,0 l/m 0 min 2 min 0 W/m 22,5 km/h (4 Bft) 97,83 %
19.12.2022 02:32 0,0 C -0,6 C -3,9 C 94 % 1020,4 hPa 0,0 l/m 0 min 0 min 0 W/m 16,1 km/h (3 Bft) 100,00 %
19.12.2022 02:34 0,0 C -0,6 C -3,9 C 94 % 1020,3 hPa 0,0 l/m 0 min 0 min 0 W/m 22,5 km/h (4 Bft) 97,87 %
19.12.2022 02:36 0,0 C -0,6 C -3,9 C 94 % 1020,4 hPa 0,0 l/m 0 min 2 min 0 W/m 16,1 km/h (3 Bft) 100,00 %
19.12.2022 02:38 0,1 C -0,6 C -3,9 C 94 % 1020,3 hPa 0,0 l/m 0 min 0 min 0 W/m 16,1 km/h (3 Bft) 100,00 %
19.12.2022 02:40 0,1 C -0,6 C -3,9 C 94 % 1020,3 hPa 0,0 l/m 0 min 0 min 0 W/m 19,3 km/h (3 Bft) 94,83 %
19.12.2022 02:42 0,1 C -0,6 C -3,9 C 94 % 1020,3 hPa 0,0 l/m 0 min 0 min 0 W/m 22,5 km/h (4 Bft) 97,22 %
19.12.2022 02:44 0,1 C -0,6 C -3,9 C 94 % 1020,2 hPa 0,0 l/m 0 min 0 min 0 W/m 29,0 km/h (5 Bft) 100,00 %
19.12.2022 02:46 0,1 C -0,6 C -3,9 C 94 % 1020,3 hPa 0,0 l/m 0 min 0 min 0 W/m 25,7 km/h (4 Bft) 100,00 %
19.12.2022 02:48 0,1 C -0,6 C -3,9 C 94 % 1020,1 hPa 0,0 l/m 0 min 2 min 0 W/m 25,7 km/h (4 Bft) 95,74 %
19.12.2022 02:50 0,2 C -0,6 C -3,9 C 94 % 1020,1 hPa 0,0 l/m 0 min 0 min 0 W/m 25,7 km/h (4 Bft) 95,74 %
19.12.2022 02:52 0,2 C -0,6 C -3,9 C 94 % 1020,1 hPa 0,0 l/m 0 min 0 min 0 W/m 22,5 km/h (4 Bft) 91,49 %
19.12.2022 02:54 0,2 C -0,6 C -3,9 C 94 % 1020,0 hPa 0,0 l/m 0 min 0 min 0 W/m 25,7 km/h (4 Bft) 82,98 %
19.12.2022 02:56 0,2 C -0,6 C -3,9 C 94 % 1020,0 hPa 0,0 l/m 0 min 0 min 0 W/m 19,3 km/h (3 Bft) 86,96 %
19.12.2022 02:58 0,2 C -0,6 C -3,9 C 94 % 1020,0 hPa 0,0 l/m 0 min 0 min 0 W/m 25,7 km/h (4 Bft) 91,49 %
19.12.2022 03:00 0,3 C -0,6 C -3,3 C 94 % 1019,9 hPa 0,0 l/m 0 min 0 min 0 W/m 22,5 km/h (4 Bft) 91,49 %
19.12.2022 03:02 0,3 C -0,6 C -3,3 C 94 % 1019,9 hPa 0,0 l/m 0 min 0 min 0 W/m 25,7 km/h (4 Bft) 93,62 %
19.12.2022 03:04 0,3 C -0,6 C -3,3 C 94 % 1019,8 hPa 0,0 l/m 0 min 0 min 0 W/m 35,4 km/h (5 Bft) 93,62 %
19.12.2022 03:06 0,3 C 0,0 C -3,3 C 94 % 1019,8 hPa 0,0 l/m 0 min 0 min 0 W/m 35,4 km/h (5 Bft) 94,83 %
19.12.2022 03:08 0,3 C 0,0 C -3,3 C 94 % 1019,8 hPa 0,0 l/m 0 min 2 min 0 W/m 25,7 km/h (4 Bft) 91,67 %
19.12.2022 03:10 0,3 C 0,0 C -3,3 C 94 % 1019,8 hPa 0,0 l/m 0 min 2 min 0 W/m 25,7 km/h (4 Bft) 95,65 %
19.12.2022 03:12 0,4 C 0,0 C -3,3 C 94 % 1019,7 hPa 0,0 l/m 0 min 0 min 0 W/m 25,7 km/h (4 Bft) 95,74 %
19.12.2022 03:14 0,4 C 0,0 C -3,3 C 94 % 1019,6 hPa 0,2 l/m 0 min 2 min 0 W/m 48,3 km/h (6 Bft) 97,87 %
19.12.2022 03:16 0,4 C -0,6 C -3,3 C 94 % 1019,6 hPa 0,0 l/m 0 min 0 min 0 W/m 22,5 km/h (4 Bft) 93,62 %
19.12.2022 03:18 0,4 C 0,0 C -3,3 C 94 % 1019,6 hPa 0,0 l/m 0 min 0 min 0 W/m 25,7 km/h (4 Bft) 93,62 %
19.12.2022 03:20 0,4 C -0,6 C -3,3 C 94 % 1019,5 hPa 0,0 l/m 0 min 0 min 0 W/m 22,5 km/h (4 Bft) 93,62 %
19.12.2022 03:22 0,4 C 0,0 C -3,3 C 94 % 1019,4 hPa 0,0 l/m 0 min 0 min 0 W/m 29,0 km/h (5 Bft) 95,65 %
19.12.2022 03:24 0,4 C 0,0 C -3,3 C 94 % 1019,4 hPa 0,0 l/m 0 min 0 min 0 W/m 22,5 km/h (4 Bft) 95,74 %
19.12.2022 03:26 0,4 C 0,0 C -3,3 C 94 % 1019,4 hPa 0,0 l/m 0 min 0 min 0 W/m 22,5 km/h (4 Bft) 95,74 %
19.12.2022 03:28 0,4 C 0,0 C -3,3 C 94 % 1019,3 hPa 0,0 l/m 0 min 0 min 0 W/m 29,0 km/h (5 Bft) 97,87 %
19.12.2022 03:30 0,5 C 0,0 C -3,3 C 94 % 1019,2 hPa 0,0 l/m 0 min 0 min 0 W/m 29,0 km/h (5 Bft) 97,87 %
19.12.2022 03:32 0,5 C 0,0 C -3,3 C 94 % 1019,2 hPa 0,0 l/m 0 min 0 min 0 W/m 29,0 km/h (5 Bft) 93,62 %
19.12.2022 03:34 0,6 C 0,0 C -3,3 C 94 % 1019,1 hPa 0,0 l/m 0 min 0 min 0 W/m 25,7 km/h (4 Bft) 95,74 %
19.12.2022 03:36 0,6 C 0,0 C -3,3 C 94 % 1019,1 hPa 0,0 l/m 0 min 0 min 0 W/m 25,7 km/h (4 Bft) 95,65 %
19.12.2022 03:38 0,6 C 0,0 C -3,3 C 95 % 1019,1 hPa 0,0 l/m 0 min 0 min 0 W/m 35,4 km/h (5 Bft) 91,49 %
19.12.2022 03:40 0,6 C 0,0 C -3,3 C 95 % 1019,1 hPa 0,0 l/m 0 min 0 min 0 W/m 22,5 km/h (4 Bft) 95,74 %
19.12.2022 03:42 0,6 C 0,0 C -3,3 C 95 % 1019,1 hPa 0,0 l/m 0 min 0 min 0 W/m 22,5 km/h (4 Bft) 97,87 %
19.12.2022 03:44 0,6 C 0,0 C -3,3 C 95 % 1019,1 hPa 0,0 l/m 0 min 0 min 0 W/m 29,0 km/h (5 Bft) 95,74 %
19.12.2022 03:46 0,6 C 0,0 C -3,3 C 95 % 1019,1 hPa 0,0 l/m 0 min 0 min 0 W/m 32,2 km/h (5 Bft) 95,74 %
19.12.2022 03:48 0,6 C 0,0 C -3,3 C 95 % 1019,1 hPa 0,0 l/m 0 min 0 min 0 W/m 25,7 km/h (4 Bft) 91,30 %
19.12.2022 03:50 0,6 C 0,0 C -3,3 C 95 % 1019,2 hPa 0,0 l/m 0 min 0 min 0 W/m 22,5 km/h (4 Bft) 95,74 %
19.12.2022 03:52 0,6 C 0,0 C -3,3 C 95 % 1019,1 hPa 0,0 l/m 0 min 0 min 0 W/m 19,3 km/h (3 Bft) 72,34 %
19.12.2022 03:54 0,6 C 0,0 C -3,3 C 94 % 1019,2 hPa 0,0 l/m 0 min 0 min 0 W/m 29,0 km/h (5 Bft) 70,59 %
19.12.2022 03:56 0,6 C 0,0 C -3,3 C 94 % 1019,2 hPa 0,0 l/m 0 min 0 min 0 W/m 22,5 km/h (4 Bft) 95,74 %
19.12.2022 03:58 0,6 C 0,0 C -3,3 C 94 % 1019,3 hPa 0,0 l/m 0 min 0 min 0 W/m 29,0 km/h (5 Bft) 97,87 %
19.12.2022 04:00 0,6 C 0,0 C -3,3 C 94 % 1019,2 hPa 0,0 l/m 0 min 0 min 0 W/m 19,3 km/h (3 Bft) 97,87 %
19.12.2022 04:02 0,6 C 0,0 C -3,3 C 94 % 1019,2 hPa 0,0 l/m 0 min 0 min 0 W/m 25,7 km/h (4 Bft) 100,00 %
19.12.2022 04:04 0,6 C 0,0 C -3,3 C 94 % 1019,2 hPa 0,0 l/m 0 min 0 min 0 W/m 25,7 km/h (4 Bft) 97,87 %
19.12.2022 04:06 0,6 C 0,0 C -3,3 C 94 % 1019,3 hPa 0,0 l/m 0 min 0 min 0 W/m 19,3 km/h (3 Bft) 98,31 %
19.12.2022 04:08 0,6 C 0,0 C -3,3 C 94 % 1019,2 hPa 0,0 l/m 0 min 0 min 0 W/m 25,7 km/h (4 Bft) 94,29 %
19.12.2022 04:10 0,6 C 0,0 C -3,3 C 94 % 1019,1 hPa 0,0 l/m 0 min 0 min 0 W/m 22,5 km/h (4 Bft) 97,87 %
19.12.2022 04:12 0,6 C 0,0 C -2,8 C 94 % 1019,1 hPa 0,0 l/m 0 min 0 min 0 W/m 22,5 km/h (4 Bft) 95,74 %
19.12.2022 04:14 0,6 C 0,0 C -2,8 C 94 % 1019,0 hPa 0,0 l/m 0 min 0 min 0 W/m 25,7 km/h (4 Bft) 97,83 %
19.12.2022 04:16 0,6 C 0,0 C -2,8 C 94 % 1019,0 hPa 0,0 l/m 0 min 2 min 0 W/m 25,7 km/h (4 Bft) 97,87 %
19.12.2022 04:18 0,7 C 0,0 C -2,8 C 94 % 1018,9 hPa 0,0 l/m 0 min 0 min 0 W/m 22,5 km/h (4 Bft) 97,87 %
19.12.2022 04:20 0,7 C 0,0 C -2,8 C 94 % 1019,0 hPa 0,0 l/m 0 min 0 min 0 W/m 22,5 km/h (4 Bft) 100,00 %
19.12.2022 04:22 0,7 C 0,0 C -2,8 C 94 % 1018,9 hPa 0,2 l/m 0 min 0 min 0 W/m 25,7 km/h (4 Bft) 95,74 %
19.12.2022 04:24 0,7 C 0,0 C -2,8 C 94 % 1018,9 hPa 0,0 l/m 0 min 2 min 0 W/m 22,5 km/h (4 Bft) 97,87 %
19.12.2022 04:26 0,7 C 0,0 C -2,8 C 94 % 1019,0 hPa 0,0 l/m 0 min 0 min 0 W/m 29,0 km/h (5 Bft) 100,00 %
19.12.2022 04:28 0,7 C 0,0 C -2,8 C 94 % 1019,1 hPa 0,0 l/m 0 min 0 min 0 W/m 25,7 km/h (4 Bft) 100,00 %
19.12.2022 04:30 0,7 C 0,0 C -2,8 C 94 % 1018,9 hPa 0,0 l/m 0 min 0 min 0 W/m 19,3 km/h (3 Bft) 97,87 %
19.12.2022 04:32 0,7 C 0,0 C -2,8 C 94 % 1018,9 hPa 0,0 l/m 0 min 0 min 0 W/m 29,0 km/h (5 Bft) 100,00 %
19.12.2022 04:34 0,7 C 0,0 C -2,8 C 95 % 1018,9 hPa 0,0 l/m 0 min 0 min 0 W/m 25,7 km/h (4 Bft) 100,00 %
19.12.2022 04:36 0,8 C 0,0 C -2,8 C 95 % 1018,9 hPa 0,0 l/m 0 min 0 min 0 W/m 25,7 km/h (4 Bft) 100,00 %
19.12.2022 04:38 0,8 C 0,0 C -2,8 C 95 % 1018,9 hPa 0,2 l/m 0 min 0 min 0 W/m 25,7 km/h (4 Bft) 100,00 %
19.12.2022 04:40 0,8 C 0,0 C -2,8 C 95 % 1018,9 hPa 0,0 l/m 0 min 0 min 0 W/m 25,7 km/h (4 Bft) 95,74 %
19.12.2022 04:42 0,8 C 0,0 C -2,8 C 95 % 1018,9 hPa 0,0 l/m 0 min 0 min 0 W/m 19,3 km/h (3 Bft) 97,87 %
19.12.2022 04:44 0,8 C 0,0 C -2,8 C 95 % 1018,9 hPa 0,0 l/m 0 min 0 min 0 W/m 22,5 km/h (4 Bft) 97,87 %
19.12.2022 04:46 0,8 C 0,0 C -2,8 C 95 % 1018,8 hPa 0,0 l/m 0 min 2 min 0 W/m 22,5 km/h (4 Bft) 97,87 %
19.12.2022 04:48 0,8 C 0,0 C -2,8 C 95 % 1018,8 hPa 0,0 l/m 0 min 0 min 0 W/m 19,3 km/h (3 Bft) 97,87 %
19.12.2022 04:50 0,8 C 0,0 C -2,8 C 95 % 1018,8 hPa 0,0 l/m 0 min 0 min 0 W/m 35,4 km/h (5 Bft) 95,74 %
19.12.2022 04:52 0,8 C 0,0 C -2,8 C 95 % 1018,7 hPa 0,0 l/m 0 min 0 min 0 W/m 19,3 km/h (3 Bft) 97,83 %
19.12.2022 04:54 0,8 C 0,0 C -2,8 C 95 % 1018,7 hPa 0,0 l/m 0 min 2 min 0 W/m 22,5 km/h (4 Bft) 97,87 %
19.12.2022 04:56 0,8 C 0,0 C -2,8 C 95 % 1018,7 hPa 0,0 l/m 0 min 2 min 0 W/m 19,3 km/h (3 Bft) 97,87 %
19.12.2022 04:58 0,8 C 0,0 C -2,8 C 95 % 1018,7 hPa 0,0 l/m 0 min 2 min 0 W/m 16,1 km/h (3 Bft) 96,23 %
19.12.2022 05:00 0,8 C 0,0 C -2,8 C 95 % 1018,7 hPa 0,0 l/m 0 min 2 min 0 W/m 22,5 km/h (4 Bft) 94,00 %
19.12.2022 05:02 0,8 C 0,0 C -2,8 C 95 % 1018,7 hPa 0,0 l/m 0 min 2 min 0 W/m 19,3 km/h (3 Bft) 97,87 %
19.12.2022 05:04 0,8 C 0,0 C -2,8 C 95 % 1018,6 hPa 0,0 l/m 0 min 2 min 0 W/m 25,7 km/h (4 Bft) 97,87 %
19.12.2022 05:06 0,8 C 0,0 C -2,8 C 95 % 1018,6 hPa 0,0 l/m 0 min 2 min 0 W/m 22,5 km/h (4 Bft) 93,62 %
19.12.2022 05:08 0,8 C 0,0 C -2,8 C 95 % 1018,6 hPa 0,0 l/m 0 min 2 min 0 W/m 25,7 km/h (4 Bft) 97,87 %
19.12.2022 05:10 0,8 C 0,0 C -2,8 C 95 % 1018,6 hPa 0,0 l/m 0 min 2 min 0 W/m 22,5 km/h (4 Bft) 95,65 %
19.12.2022 05:12 0,9 C 0,0 C -2,8 C 95 % 1018,6 hPa 0,4 l/m 0 min 2 min 0 W/m 25,7 km/h (4 Bft) 97,87 %
19.12.2022 05:14 0,9 C 0,0 C -2,8 C 95 % 1018,5 hPa 0,0 l/m 0 min 0 min 0 W/m 19,3 km/h (3 Bft) 93,62 %
19.12.2022 05:16 0,9 C 0,0 C -2,8 C 95 % 1018,5 hPa 0,0 l/m 0 min 2 min 0 W/m 29,0 km/h (5 Bft) 100,00 %
19.12.2022 05:18 0,9 C 0,0 C -2,8 C 95 % 1018,5 hPa 0,0 l/m 0 min 2 min 0 W/m 22,5 km/h (4 Bft) 97,87 %
19.12.2022 05:20 0,9 C 0,0 C -2,8 C 95 % 1018,5 hPa 0,0 l/m 0 min 2 min 0 W/m 32,2 km/h (5 Bft) 100,00 %
19.12.2022 05:22 0,9 C 0,0 C -2,8 C 95 % 1018,5 hPa 0,0 l/m 0 min 2 min 0 W/m 19,3 km/h (3 Bft) 97,83 %
19.12.2022 05:24 0,9 C 0,0 C -2,8 C 95 % 1018,5 hPa 0,0 l/m 0 min 0 min 0 W/m 19,3 km/h (3 Bft) 93,62 %
19.12.2022 05:26 0,9 C 0,0 C -2,8 C 95 % 1018,5 hPa 0,0 l/m 0 min 2 min 0 W/m 16,1 km/h (3 Bft) 97,87 %
19.12.2022 05:28 0,9 C 0,0 C -2,8 C 96 % 1018,5 hPa 0,0 l/m 0 min 2 min 0 W/m 16,1 km/h (3 Bft) 97,87 %
19.12.2022 05:30 1,0 C 0,0 C -2,8 C 96 % 1018,5 hPa 0,0 l/m 0 min 2 min 0 W/m 19,3 km/h (3 Bft) 100,00 %
19.12.2022 05:32 1,0 C 0,0 C -2,8 C 95 % 1018,6 hPa 0,4 l/m 0 min 2 min 0 W/m 25,7 km/h (4 Bft) 100,00 %
19.12.2022 05:34 1,0 C 0,6 C -2,8 C 96 % 1018,5 hPa 0,0 l/m 0 min 2 min 0 W/m 22,5 km/h (4 Bft) 100,00 %
19.12.2022 05:36 1,1 C 0,6 C -2,2 C 96 % 1018,7 hPa 0,0 l/m 0 min 2 min 0 W/m 16,1 km/h (3 Bft) 97,87 %
19.12.2022 05:38 1,1 C 0,6 C -2,2 C 96 % 1018,7 hPa 0,0 l/m 0 min 2 min 0 W/m 16,1 km/h (3 Bft) 97,87 %
19.12.2022 05:40 1,1 C 0,6 C -2,2 C 96 % 1018,7 hPa 0,0 l/m 0 min 2 min 0 W/m 19,3 km/h (3 Bft) 95,74 %
19.12.2022 05:42 1,1 C 0,6 C -2,2 C 96 % 1018,6 hPa 0,0 l/m 0 min 2 min 0 W/m 19,3 km/h (3 Bft) 95,74 %
19.12.2022 05:44 1,1 C 0,6 C -2,2 C 96 % 1018,6 hPa 0,0 l/m 0 min 2 min 0 W/m 25,7 km/h (4 Bft) 97,87 %
19.12.2022 05:46 1,1 C 0,6 C -2,2 C 96 % 1018,5 hPa 0,0 l/m 0 min 2 min 0 W/m 29,0 km/h (5 Bft) 95,74 %
19.12.2022 05:48 1,1 C 0,6 C -2,2 C 96 % 1018,4 hPa 0,0 l/m 0 min 2 min 0 W/m 25,7 km/h (4 Bft) 97,83 %
19.12.2022 05:50 1,1 C 0,6 C -2,2 C 96 % 1018,5 hPa 0,4 l/m 0 min 0 min 0 W/m 22,5 km/h (4 Bft) 97,87 %
19.12.2022 05:52 1,1 C 0,6 C -2,2 C 96 % 1018,6 hPa 0,0 l/m 0 min 0 min 0 W/m 22,5 km/h (4 Bft) 97,87 %
19.12.2022 05:54 1,1 C 0,6 C -2,2 C 96 % 1018,5 hPa 0,0 l/m 0 min 0 min 0 W/m 22,5 km/h (4 Bft) 97,87 %
19.12.2022 05:56 1,2 C 0,6 C -2,2 C 96 % 1018,5 hPa 0,0 l/m 0 min 0 min 0 W/m 22,5 km/h (4 Bft) 97,87 %
19.12.2022 05:58 1,2 C 0,6 C -2,2 C 96 % 1018,5 hPa 0,0 l/m 0 min 0 min 0 W/m 22,5 km/h (4 Bft) 97,87 %
19.12.2022 06:00 1,2 C 0,6 C -2,2 C 96 % 1018,5 hPa 0,0 l/m 0 min 0 min 0 W/m 16,1 km/h (3 Bft) 95,65 %
19.12.2022 06:02 1,2 C 0,6 C -2,2 C 96 % 1018,4 hPa 0,0 l/m 0 min 0 min 0 W/m 19,3 km/h (3 Bft) 95,74 %
19.12.2022 06:04 1,2 C 0,6 C -2,2 C 96 % 1018,4 hPa 0,0 l/m 0 min 0 min 0 W/m 22,5 km/h (4 Bft) 97,87 %
19.12.2022 06:08 1,2 C 0,6 C -2,2 C 96 % 1018,5 hPa 0,0 l/m 0 min 0 min 0 W/m 22,5 km/h (4 Bft) 98,96 %
19.12.2022 06:10 1,2 C 0,6 C -2,2 C 96 % 1018,4 hPa 0,0 l/m 0 min 0 min 0 W/m 19,3 km/h (3 Bft) 97,87 %
19.12.2022 06:12 1,3 C 0,6 C -2,2 C 96 % 1018,4 hPa 0,0 l/m 0 min 0 min 0 W/m 16,1 km/h (3 Bft) 51,11 %
19.12.2022 06:14 1,3 C 0,6 C -2,2 C 96 % 1018,4 hPa 0,0 l/m 0 min 0 min 0 W/m 22,5 km/h (4 Bft) 97,87 %
19.12.2022 06:16 1,3 C 0,6 C -2,2 C 96 % 1018,3 hPa 0,0 l/m 0 min 0 min 0 W/m 19,3 km/h (3 Bft) 97,87 %
19.12.2022 06:18 1,3 C 0,6 C -2,2 C 96 % 1018,3 hPa 0,0 l/m 0 min 0 min 0 W/m 19,3 km/h (3 Bft) 97,87 %
19.12.2022 06:20 1,4 C 0,6 C -2,2 C 96 % 1018,3 hPa 0,0 l/m 0 min 2 min 0 W/m 19,3 km/h (3 Bft) 100,00 %
19.12.2022 06:22 1,4 C 0,6 C -2,2 C 96 % 1018,3 hPa 0,0 l/m 0 min 0 min 0 W/m 22,5 km/h (4 Bft) 100,00 %
19.12.2022 06:24 1,4 C 0,6 C -2,2 C 96 % 1018,3 hPa 0,0 l/m 0 min 0 min 0 W/m 29,0 km/h (5 Bft) 97,87 %
19.12.2022 06:26 1,4 C 0,6 C -2,2 C 96 % 1018,2 hPa 0,0 l/m 0 min 0 min 0 W/m 25,7 km/h (4 Bft) 95,65 %
19.12.2022 06:28 1,4 C 0,6 C -2,2 C 97 % 1018,3 hPa 0,0 l/m 0 min 0 min 0 W/m 16,1 km/h (3 Bft) 100,00 %
19.12.2022 06:30 1,5 C 0,6 C -1,7 C 97 % 1018,3 hPa 0,0 l/m 0 min 2 min 0 W/m 19,3 km/h (3 Bft) 97,87 %
19.12.2022 06:32 1,5 C 1,1 C -1,7 C 97 % 1018,3 hPa 0,4 l/m 0 min 2 min 0 W/m 16,1 km/h (3 Bft) 93,62 %
19.12.2022 06:34 1,6 C 1,1 C -1,7 C 97 % 1018,3 hPa 0,0 l/m 0 min 0 min 0 W/m 29,0 km/h (5 Bft) 95,74 %
19.12.2022 06:36 1,6 C 1,1 C -1,7 C 97 % 1018,3 hPa 0,0 l/m 0 min 2 min 0 W/m 22,5 km/h (4 Bft) 97,87 %
19.12.2022 06:38 1,6 C 1,1 C -1,7 C 97 % 1018,3 hPa 0,0 l/m 0 min 2 min 0 W/m 22,5 km/h (4 Bft) 95,65 %
19.12.2022 06:40 1,6 C 1,1 C -1,7 C 97 % 1018,4 hPa 0,0 l/m 0 min 2 min 0 W/m 16,1 km/h (3 Bft) 95,74 %
19.12.2022 06:42 1,6 C 1,1 C -1,7 C 97 % 1018,3 hPa 0,0 l/m 0 min 0 min 0 W/m 19,3 km/h (3 Bft) 95,74 %
19.12.2022 06:44 1,7 C 1,1 C -1,7 C 97 % 1018,4 hPa 0,0 l/m 0 min 2 min 0 W/m 19,3 km/h (3 Bft) 95,74 %
19.12.2022 06:46 1,7 C 1,1 C -1,7 C 97 % 1018,3 hPa 0,0 l/m 0 min 2 min 0 W/m 22,5 km/h (4 Bft) 95,74 %
19.12.2022 06:48 1,7 C 1,1 C -1,7 C 97 % 1018,3 hPa 0,4 l/m 0 min 2 min 0 W/m 22,5 km/h (4 Bft) 95,74 %
19.12.2022 06:50 1,7 C 1,1 C -1,7 C 97 % 1018,4 hPa 0,0 l/m 0 min 2 min 0 W/m 29,0 km/h (5 Bft) 95,74 %
19.12.2022 06:52 1,7 C 1,1 C -1,7 C 97 % 1018,4 hPa 0,0 l/m 0 min 0 min 0 W/m 19,3 km/h (3 Bft) 95,65 %
19.12.2022 06:54 1,8 C 1,1 C -1,7 C 97 % 1018,4 hPa 0,0 l/m 0 min 0 min 0 W/m 16,1 km/h (3 Bft) 91,49 %
19.12.2022 06:56 1,8 C 1,1 C -1,7 C 97 % 1018,3 hPa 0,0 l/m 0 min 0 min 0 W/m 22,5 km/h (4 Bft) 95,74 %
19.12.2022 06:58 1,8 C 1,1 C -1,7 C 97 % 1018,3 hPa 0,0 l/m 0 min 0 min 0 W/m 22,5 km/h (4 Bft) 95,74 %
19.12.2022 07:00 1,8 C 1,1 C -1,7 C 97 % 1018,3 hPa 0,4 l/m 0 min 0 min 0 W/m 12,9 km/h (3 Bft) 65,96 %
19.12.2022 07:02 1,8 C 1,1 C -1,7 C 97 % 1018,3 hPa 0,0 l/m 0 min 0 min 0 W/m 19,3 km/h (3 Bft) 80,43 %
19.12.2022 07:04 1,8 C 1,1 C -1,7 C 97 % 1018,3 hPa 0,0 l/m 0 min 2 min 0 W/m 16,1 km/h (3 Bft) 93,48 %
19.12.2022 07:06 1,8 C 1,1 C -1,7 C 97 % 1018,3 hPa 0,0 l/m 0 min 2 min 0 W/m 19,3 km/h (3 Bft) 95,74 %
19.12.2022 07:08 1,8 C 1,1 C -1,7 C 97 % 1018,3 hPa 0,0 l/m 0 min 0 min 0 W/m 16,1 km/h (3 Bft) 93,62 %
19.12.2022 07:10 1,8 C 1,1 C -1,7 C 97 % 1018,3 hPa 0,0 l/m 0 min 2 min 0 W/m 25,7 km/h (4 Bft) 95,74 %
19.12.2022 07:12 1,9 C 1,1 C -1,7 C 97 % 1018,3 hPa 0,0 l/m 0 min 2 min 0 W/m 22,5 km/h (4 Bft) 95,74 %
19.12.2022 07:14 1,9 C 1,1 C -1,7 C 97 % 1018,4 hPa 0,0 l/m 0 min 2 min 0 W/m 19,3 km/h (3 Bft) 95,74 %
19.12.2022 07:16 1,9 C 1,1 C -1,7 C 97 % 1018,3 hPa 0,0 l/m 0 min 0 min 0 W/m 19,3 km/h (3 Bft) 97,87 %
19.12.2022 07:18 1,9 C 1,1 C -1,7 C 97 % 1018,3 hPa 0,0 l/m 0 min 0 min 0 W/m 29,0 km/h (5 Bft) 95,65 %
19.12.2022 07:20 1,9 C 1,1 C -1,7 C 97 % 1018,4 hPa 0,0 l/m 0 min 2 min 0 W/m 19,3 km/h (3 Bft) 95,74 %
19.12.2022 07:22 1,9 C 1,1 C -1,7 C 97 % 1018,4 hPa 0,0 l/m 0 min 0 min 0 W/m 16,1 km/h (3 Bft) 100,00 %
19.12.2022 07:24 1,9 C 1,1 C -1,7 C 97 % 1018,3 hPa 0,0 l/m 0 min 2 min 0 W/m 16,1 km/h (3 Bft) 100,00 %
19.12.2022 07:26 1,9 C 1,1 C -1,7 C 97 % 1018,4 hPa 0,0 l/m 0 min 2 min 0 W/m 22,5 km/h (4 Bft) 97,87 %
19.12.2022 07:28 2,0 C 1,1 C -1,1 C 97 % 1018,3 hPa 0,4 l/m 0 min 2 min 0 W/m 22,5 km/h (4 Bft) 100,00 %
19.12.2022 07:30 2,0 C 1,1 C -1,1 C 97 % 1018,3 hPa 0,0 l/m 0 min 2 min 0 W/m 22,5 km/h (4 Bft) 97,87 %
19.12.2022 07:32 2,0 C 1,1 C -1,1 C 97 % 1018,4 hPa 0,0 l/m 0 min 2 min 0 W/m 19,3 km/h (3 Bft) 100,00 %
19.12.2022 07:34 2,0 C 1,1 C -1,1 C 97 % 1018,3 hPa 0,0 l/m 0 min 2 min 0 W/m 16,1 km/h (3 Bft) 95,74 %
19.12.2022 07:36 2,1 C 1,1 C -1,1 C 97 % 1018,3 hPa 0,0 l/m 0 min 2 min 0 W/m 19,3 km/h (3 Bft) 100,00 %
19.12.2022 07:38 2,1 C 1,1 C -1,1 C 97 % 1018,3 hPa 0,0 l/m 0 min 2 min 0 W/m 25,7 km/h (4 Bft) 97,87 %
19.12.2022 07:40 2,1 C 1,1 C -1,1 C 97 % 1018,3 hPa 0,0 l/m 0 min 2 min 0 W/m 16,1 km/h (3 Bft) 100,00 %
19.12.2022 07:42 2,1 C 1,1 C -1,1 C 98 % 1018,2 hPa 0,0 l/m 0 min 2 min 0 W/m 19,3 km/h (3 Bft) 100,00 %
19.12.2022 07:44 2,1 C 1,1 C -1,1 C 98 % 1018,2 hPa 0,0 l/m 0 min 2 min 0 W/m 25,7 km/h (4 Bft) 97,83 %
19.12.2022 07:46 2,1 C 1,1 C -1,1 C 98 % 1018,3 hPa 0,2 l/m 0 min 2 min 0 W/m 22,5 km/h (4 Bft) 95,74 %
19.12.2022 07:48 2,1 C 1,7 C -1,1 C 98 % 1018,3 hPa 0,0 l/m 0 min 2 min 0 W/m 22,5 km/h (4 Bft) 100,00 %
19.12.2022 07:50 2,1 C 1,7 C -1,1 C 98 % 1018,3 hPa 0,0 l/m 0 min 2 min 0 W/m 12,9 km/h (3 Bft) 97,87 %
19.12.2022 07:52 2,1 C 1,7 C -1,1 C 98 % 1018,3 hPa 0,2 l/m 0 min 2 min 0 W/m 22,5 km/h (4 Bft) 97,87 %
19.12.2022 07:54 2,1 C 1,7 C -1,1 C 97 % 1018,3 hPa 0,0 l/m 0 min 2 min 0 W/m 16,1 km/h (3 Bft) 97,87 %
19.12.2022 07:56 2,1 C 1,7 C -1,1 C 98 % 1018,3 hPa 0,0 l/m 0 min 2 min 0 W/m 16,1 km/h (3 Bft) 100,00 %
19.12.2022 07:58 2,2 C 1,7 C -1,1 C 98 % 1018,2 hPa 0,0 l/m 0 min 2 min 0 W/m 22,5 km/h (4 Bft) 95,65 %
19.12.2022 08:00 2,2 C 1,7 C -1,1 C 98 % 1018,2 hPa 0,0 l/m 0 min 2 min 0 W/m 22,5 km/h (4 Bft) 100,00 %
19.12.2022 08:02 2,2 C 1,7 C -1,1 C 98 % 1018,2 hPa 0,0 l/m 0 min 2 min 0 W/m 16,1 km/h (3 Bft) 97,87 %
19.12.2022 08:04 2,2 C 1,7 C -1,1 C 98 % 1018,2 hPa 0,2 l/m 0 min 2 min 0 W/m 19,3 km/h (3 Bft) 100,00 %
19.12.2022 08:06 2,2 C 1,7 C -1,1 C 98 % 1018,3 hPa 0,0 l/m 0 min 2 min 0 W/m 16,1 km/h (3 Bft) 100,00 %
19.12.2022 08:08 2,2 C 1,7 C -1,1 C 98 % 1018,2 hPa 0,0 l/m 0 min 2 min 0 W/m 12,9 km/h (3 Bft) 100,00 %
19.12.2022 08:10 2,3 C 1,7 C -1,1 C 98 % 1018,2 hPa 0,0 l/m 0 min 2 min 0 W/m 19,3 km/h (3 Bft) 100,00 %
19.12.2022 08:12 2,3 C 1,7 C -1,1 C 98 % 1018,2 hPa 0,2 l/m 0 min 2 min 0 W/m 19,3 km/h (3 Bft) 97,87 %
19.12.2022 08:14 2,3 C 1,7 C -1,1 C 98 % 1018,2 hPa 0,0 l/m 0 min 2 min 0 W/m 19,3 km/h (3 Bft) 97,87 %
19.12.2022 08:16 2,3 C 1,7 C -1,1 C 98 % 1018,3 hPa 0,0 l/m 0 min 2 min 0 W/m 16,1 km/h (3 Bft) 97,87 %
19.12.2022 08:18 2,4 C 1,7 C -1,1 C 98 % 1018,3 hPa 0,0 l/m 0 min 2 min 0 W/m 19,3 km/h (3 Bft) 97,87 %
19.12.2022 08:20 2,4 C 1,7 C -1,1 C 98 % 1018,3 hPa 0,0 l/m 0 min 2 min 0 W/m 22,5 km/h (4 Bft) 97,87 %
19.12.2022 08:22 2,4 C 1,7 C -1,1 C 98 % 1018,3 hPa 0,0 l/m 0 min 2 min 0 W/m 22,5 km/h (4 Bft) 97,87 %
19.12.2022 08:24 2,4 C 1,7 C -1,1 C 98 % 1018,4 hPa 0,0 l/m 0 min 2 min 0 W/m 19,3 km/h (3 Bft) 95,65 %
19.12.2022 08:26 2,5 C 1,7 C -0,6 C 98 % 1018,3 hPa 0,0 l/m 0 min 0 min 0 W/m 16,1 km/h (3 Bft) 91,49 %
19.12.2022 08:28 2,5 C 1,7 C -0,6 C 98 % 1018,4 hPa 0,0 l/m 0 min 0 min 0 W/m 12,9 km/h (3 Bft) 97,87 %
19.12.2022 08:30 2,6 C 2,2 C -0,6 C 98 % 1018,4 hPa 0,0 l/m 0 min 0 min 0 W/m 19,3 km/h (3 Bft) 95,74 %
19.12.2022 08:32 2,6 C 2,2 C -0,6 C 98 % 1018,4 hPa 0,0 l/m 0 min 2 min 0 W/m 19,3 km/h (3 Bft) 97,87 %
19.12.2022 08:34 2,6 C 2,2 C -0,6 C 98 % 1018,4 hPa 0,0 l/m 0 min 0 min 0 W/m 19,3 km/h (3 Bft) 93,62 %
19.12.2022 08:36 2,6 C 2,2 C -0,6 C 98 % 1018,3 hPa 0,0 l/m 0 min 2 min 0 W/m 16,1 km/h (3 Bft) 95,65 %
19.12.2022 08:38 2,6 C 2,2 C -0,6 C 98 % 1018,3 hPa 0,2 l/m 0 min 0 min 0 W/m 22,5 km/h (4 Bft) 95,74 %
19.12.2022 08:40 2,7 C 2,2 C -0,6 C 98 % 1018,3 hPa 0,0 l/m 0 min 0 min 0 W/m 25,7 km/h (4 Bft) 95,74 %
19.12.2022 08:42 2,7 C 2,2 C -0,6 C 98 % 1018,4 hPa 0,0 l/m 0 min 0 min 0 W/m 22,5 km/h (4 Bft) 95,74 %
19.12.2022 08:44 2,7 C 2,2 C -0,6 C 98 % 1018,4 hPa 0,0 l/m 0 min 2 min 0 W/m 22,5 km/h (4 Bft) 93,62 %
19.12.2022 08:46 2,7 C 2,2 C -0,6 C 98 % 1018,3 hPa 0,0 l/m 0 min 2 min 0 W/m 22,5 km/h (4 Bft) 95,74 %
19.12.2022 08:48 2,8 C 2,2 C -0,6 C 98 % 1018,3 hPa 0,0 l/m 0 min 2 min 0 W/m 25,7 km/h (4 Bft) 95,74 %
19.12.2022 08:50 2,8 C 2,2 C -0,6 C 98 % 1018,3 hPa 0,0 l/m 0 min 0 min 0 W/m 16,1 km/h (3 Bft) 95,65 %
19.12.2022 08:52 2,8 C 2,2 C -0,6 C 98 % 1018,4 hPa 0,0 l/m 0 min 0 min 0 W/m 19,3 km/h (3 Bft) 95,74 %
19.12.2022 08:54 2,8 C 2,2 C -0,6 C 98 % 1018,4 hPa 0,0 l/m 0 min 2 min 0 W/m 19,3 km/h (3 Bft) 97,87 %
19.12.2022 08:56 2,9 C 2,2 C -0,6 C 98 % 1018,4 hPa 0,0 l/m 0 min 2 min 0 W/m 16,1 km/h (3 Bft) 97,87 %
19.12.2022 08:58 2,9 C 2,2 C -0,6 C 98 % 1018,5 hPa 0,0 l/m 0 min 2 min 5 W/m 19,3 km/h (3 Bft) 97,87 %
19.12.2022 09:00 2,9 C 2,2 C -0,6 C 98 % 1018,5 hPa 0,0 l/m 0 min 2 min 6 W/m 29,0 km/h (5 Bft) 97,87 %
19.12.2022 09:02 2,9 C 2,2 C -0,6 C 98 % 1018,4 hPa 0,0 l/m 0 min 2 min 7 W/m 16,1 km/h (3 Bft) 100,00 %
19.12.2022 09:04 2,9 C 2,2 C -0,6 C 98 % 1018,4 hPa 0,0 l/m 0 min 2 min 9 W/m 16,1 km/h (3 Bft) 100,00 %
19.12.2022 09:06 3,0 C 2,2 C -0,6 C 98 % 1018,5 hPa 0,0 l/m 0 min 0 min 10 W/m 19,3 km/h (3 Bft) 97,87 %
19.12.2022 09:08 3,0 C 2,2 C -0,6 C 98 % 1018,4 hPa 0,0 l/m 0 min 0 min 11 W/m 22,5 km/h (4 Bft) 100,00 %
19.12.2022 09:10 3,0 C 2,2 C -0,6 C 98 % 1018,5 hPa 0,0 l/m 0 min 0 min 11 W/m 22,5 km/h (4 Bft) 100,00 %
19.12.2022 09:12 3,1 C 2,8 C -0,6 C 98 % 1018,5 hPa 0,0 l/m 0 min 0 min 11 W/m 16,1 km/h (3 Bft) 100,00 %
19.12.2022 09:14 3,1 C 2,8 C 0,0 C 98 % 1018,5 hPa 0,0 l/m 0 min 0 min 9 W/m 19,3 km/h (3 Bft) 100,00 %
19.12.2022 09:16 3,1 C 2,8 C -0,6 C 98 % 1018,5 hPa 0,0 l/m 0 min 0 min 9 W/m 16,1 km/h (3 Bft) 100,00 %
19.12.2022 09:18 3,1 C 2,8 C 0,0 C 98 % 1018,5 hPa 0,0 l/m 0 min 2 min 11 W/m 25,7 km/h (4 Bft) 100,00 %
19.12.2022 09:20 3,1 C 2,8 C 0,0 C 98 % 1018,6 hPa 0,0 l/m 0 min 2 min 13 W/m 19,3 km/h (3 Bft) 100,00 %
19.12.2022 09:22 3,2 C 2,8 C 0,0 C 98 % 1018,5 hPa 0,2 l/m 0 min 0 min 14 W/m 16,1 km/h (3 Bft) 97,87 %
19.12.2022 09:24 3,2 C 2,8 C 0,0 C 98 % 1018,6 hPa 0,0 l/m 0 min 0 min 14 W/m 12,9 km/h (3 Bft) 97,87 %
19.12.2022 09:26 3,2 C 2,8 C 0,0 C 98 % 1018,7 hPa 0,0 l/m 0 min 0 min 14 W/m 12,9 km/h (3 Bft) 95,65 %
19.12.2022 09:28 3,2 C 2,8 C 0,0 C 98 % 1018,7 hPa 0,0 l/m 0 min 0 min 14 W/m 19,3 km/h (3 Bft) 97,87 %
19.12.2022 09:30 3,2 C 2,8 C 0,0 C 98 % 1018,7 hPa 0,0 l/m 0 min 0 min 14 W/m 25,7 km/h (4 Bft) 97,87 %
19.12.2022 09:32 3,3 C 2,8 C 0,0 C 98 % 1018,7 hPa 0,0 l/m 0 min 0 min 16 W/m 12,9 km/h (3 Bft) 97,87 %
19.12.2022 09:34 3,3 C 2,8 C 0,0 C 98 % 1018,7 hPa 0,0 l/m 0 min 0 min 18 W/m 16,1 km/h (3 Bft) 97,87 %
19.12.2022 09:36 3,3 C 2,8 C 0,0 C 98 % 1018,7 hPa 0,0 l/m 0 min 0 min 19 W/m 19,3 km/h (3 Bft) 93,62 %
19.12.2022 09:38 3,3 C 2,8 C 0,0 C 98 % 1018,7 hPa 0,0 l/m 0 min 0 min 21 W/m 19,3 km/h (3 Bft) 97,87 %
19.12.2022 09:40 3,3 C 2,8 C 0,0 C 98 % 1018,7 hPa 0,0 l/m 0 min 0 min 21 W/m 22,5 km/h (4 Bft) 97,83 %
19.12.2022 09:42 3,3 C 2,8 C 0,0 C 98 % 1018,7 hPa 0,0 l/m 0 min 2 min 19 W/m 16,1 km/h (3 Bft) 97,87 %
19.12.2022 09:44 3,4 C 2,8 C 0,0 C 98 % 1018,6 hPa 0,0 l/m 0 min 2 min 19 W/m 12,9 km/h (3 Bft) 97,87 %
19.12.2022 09:46 3,4 C 2,8 C 0,0 C 98 % 1018,6 hPa 0,0 l/m 0 min 0 min 19 W/m 19,3 km/h (3 Bft) 97,87 %
19.12.2022 09:48 3,4 C 2,8 C 0,0 C 98 % 1018,5 hPa 0,0 l/m 0 min 0 min 21 W/m 25,7 km/h (4 Bft) 95,74 %
19.12.2022 09:50 3,4 C 2,8 C 0,0 C 98 % 1018,4 hPa 0,0 l/m 0 min 2 min 24 W/m 16,1 km/h (3 Bft) 97,87 %
19.12.2022 09:52 3,4 C 2,8 C 0,0 C 98 % 1018,3 hPa 0,0 l/m 0 min 0 min 26 W/m 19,3 km/h (3 Bft) 97,83 %
19.12.2022 09:54 3,4 C 2,8 C 0,0 C 98 % 1018,4 hPa 0,0 l/m 0 min 2 min 26 W/m 19,3 km/h (3 Bft) 91,49 %
19.12.2022 09:56 3,4 C 2,8 C 0,0 C 98 % 1018,5 hPa 0,0 l/m 0 min 2 min 26 W/m 16,1 km/h (3 Bft) 100,00 %
19.12.2022 09:58 3,4 C 2,8 C 0,0 C 98 % 1018,5 hPa 0,0 l/m 0 min 0 min 26 W/m 19,3 km/h (3 Bft) 95,74 %
19.12.2022 10:00 3,5 C 2,8 C 0,0 C 98 % 1018,5 hPa 0,0 l/m 0 min 0 min 28 W/m 16,1 km/h (3 Bft) 95,74 %
19.12.2022 10:02 3,5 C 3,3 C 0,0 C 98 % 1018,5 hPa 0,0 l/m 0 min 0 min 29 W/m 19,3 km/h (3 Bft) 95,74 %
19.12.2022 10:04 3,5 C 3,3 C 0,0 C 98 % 1018,6 hPa 0,0 l/m 0 min 0 min 31 W/m 12,9 km/h (3 Bft) 95,74 %
19.12.2022 10:06 3,6 C 3,3 C 0,0 C 98 % 1018,6 hPa 0,0 l/m 0 min 2 min 32 W/m 16,1 km/h (3 Bft) 98,28 %
19.12.2022 10:08 3,6 C 3,3 C 0,0 C 98 % 1018,6 hPa 0,0 l/m 0 min 0 min 32 W/m 16,1 km/h (3 Bft) 95,74 %
19.12.2022 10:10 3,6 C 3,3 C 0,0 C 98 % 1018,6 hPa 0,0 l/m 0 min 0 min 33 W/m 16,1 km/h (3 Bft) 91,43 %
19.12.2022 10:12 3,6 C 3,3 C 0,6 C 98 % 1018,6 hPa 0,0 l/m 0 min 0 min 35 W/m 19,3 km/h (3 Bft) 98,31 %
19.12.2022 10:14 3,6 C 3,3 C 0,6 C 98 % 1018,6 hPa 0,0 l/m 0 min 0 min 37 W/m 22,5 km/h (4 Bft) 100,00 %
19.12.2022 10:16 3,6 C 3,3 C 0,6 C 98 % 1018,5 hPa 0,0 l/m 0 min 0 min 35 W/m 16,1 km/h (3 Bft) 97,87 %
19.12.2022 10:18 3,7 C 3,3 C 0,6 C 98 % 1018,5 hPa 0,0 l/m 0 min 0 min 31 W/m 16,1 km/h (3 Bft) 100,00 %
19.12.2022 10:20 3,7 C 3,3 C 0,6 C 98 % 1018,5 hPa 0,0 l/m 0 min 0 min 28 W/m 22,5 km/h (4 Bft) 93,62 %
19.12.2022 10:22 3,7 C 3,3 C 0,6 C 98 % 1018,4 hPa 0,0 l/m 0 min 0 min 30 W/m 16,1 km/h (3 Bft) 97,83 %
19.12.2022 10:24 3,7 C 3,3 C 0,6 C 98 % 1018,5 hPa 0,0 l/m 0 min 2 min 32 W/m 19,3 km/h (3 Bft) 100,00 %
19.12.2022 10:26 3,7 C 3,3 C 0,6 C 98 % 1018,4 hPa 0,0 l/m 0 min 2 min 32 W/m 22,5 km/h (4 Bft) 100,00 %
19.12.2022 10:28 3,7 C 3,3 C 0,6 C 98 % 1018,4 hPa 0,0 l/m 0 min 0 min 32 W/m 16,1 km/h (3 Bft) 97,87 %
19.12.2022 10:30 3,7 C 3,3 C 0,6 C 98 % 1018,4 hPa 0,0 l/m 0 min 2 min 32 W/m 16,1 km/h (3 Bft) 96,08 %
19.12.2022 10:32 3,8 C 3,3 C 0,6 C 98 % 1018,4 hPa 0,0 l/m 0 min 0 min 33 W/m 16,1 km/h (3 Bft) 97,87 %
19.12.2022 10:34 3,8 C 3,3 C 0,6 C 98 % 1018,4 hPa 0,0 l/m 0 min 0 min 36 W/m 12,9 km/h (3 Bft) 95,74 %
19.12.2022 10:36 3,8 C 3,3 C 0,6 C 98 % 1018,4 hPa 0,0 l/m 0 min 0 min 43 W/m 12,9 km/h (3 Bft) 94,34 %
19.12.2022 10:38 3,8 C 3,3 C 0,6 C 98 % 1018,4 hPa 0,0 l/m 0 min 0 min 52 W/m 19,3 km/h (3 Bft) 97,37 %
19.12.2022 10:40 3,8 C 3,3 C 0,6 C 98 % 1018,4 hPa 0,0 l/m 0 min 0 min 57 W/m 16,1 km/h (3 Bft) 93,62 %
19.12.2022 10:42 3,8 C 3,3 C 0,6 C 98 % 1018,4 hPa 0,0 l/m 0 min 0 min 60 W/m 16,1 km/h (3 Bft) 97,87 %
19.12.2022 10:44 3,9 C 3,9 C 0,6 C 98 % 1018,5 hPa 0,0 l/m 0 min 0 min 58 W/m 16,1 km/h (3 Bft) 97,87 %
19.12.2022 10:46 3,9 C 3,9 C 0,6 C 98 % 1018,5 hPa 0,0 l/m 0 min 0 min 52 W/m 12,9 km/h (3 Bft) 95,65 %
19.12.2022 10:48 3,9 C 3,9 C 0,6 C 98 % 1018,5 hPa 0,0 l/m 0 min 0 min 48 W/m 16,1 km/h (3 Bft) 95,74 %
19.12.2022 10:50 4,0 C 3,9 C 0,6 C 98 % 1018,5 hPa 0,0 l/m 0 min 0 min 48 W/m 29,0 km/h (5 Bft) 95,74 %
19.12.2022 10:52 4,0 C 3,9 C 0,6 C 98 % 1018,5 hPa 0,0 l/m 0 min 0 min 46 W/m 22,5 km/h (4 Bft) 93,62 %
19.12.2022 10:54 4,1 C 3,9 C 0,6 C 98 % 1018,5 hPa 0,0 l/m 0 min 0 min 47 W/m 16,1 km/h (3 Bft) 95,74 %
19.12.2022 10:56 4,1 C 3,9 C 1,1 C 98 % 1018,5 hPa 0,0 l/m 0 min 0 min 46 W/m 22,5 km/h (4 Bft) 95,74 %
19.12.2022 10:58 4,1 C 3,9 C 1,1 C 98 % 1018,6 hPa 0,0 l/m 0 min 0 min 43 W/m 16,1 km/h (3 Bft) 95,74 %
19.12.2022 11:00 4,1 C 3,9 C 0,6 C 98 % 1018,6 hPa 0,0 l/m 0 min 0 min 42 W/m 16,1 km/h (3 Bft) 95,65 %
19.12.2022 11:02 4,2 C 3,9 C 1,1 C 98 % 1018,6 hPa 0,0 l/m 0 min 0 min 40 W/m 16,1 km/h (3 Bft) 95,74 %
19.12.2022 11:04 4,2 C 3,9 C 1,1 C 98 % 1018,7 hPa 0,0 l/m 0 min 0 min 42 W/m 16,1 km/h (3 Bft) 95,74 %
19.12.2022 11:06 4,2 C 3,9 C 1,1 C 98 % 1018,6 hPa 0,0 l/m 0 min 0 min 42 W/m 16,1 km/h (3 Bft) 98,31 %
19.12.2022 11:08 4,2 C 3,9 C 1,1 C 98 % 1018,6 hPa 0,0 l/m 0 min 0 min 42 W/m 16,1 km/h (3 Bft) 97,14 %
19.12.2022 11:10 4,2 C 3,9 C 1,1 C 98 % 1018,7 hPa 0,0 l/m 0 min 0 min 44 W/m 16,1 km/h (3 Bft) 97,87 %
19.12.2022 11:12 4,3 C 3,9 C 1,1 C 98 % 1018,7 hPa 0,0 l/m 0 min 0 min 46 W/m 9,7 km/h (2 Bft) 95,65 %
19.12.2022 11:14 4,3 C 3,9 C 1,1 C 98 % 1018,7 hPa 0,0 l/m 0 min 0 min 48 W/m 12,9 km/h (3 Bft) 97,87 %
19.12.2022 11:16 4,3 C 3,9 C 1,1 C 98 % 1018,6 hPa 0,0 l/m 0 min 0 min 49 W/m 16,1 km/h (3 Bft) 97,87 %
19.12.2022 11:18 4,3 C 3,9 C 1,1 C 98 % 1018,6 hPa 0,0 l/m 0 min 0 min 47 W/m 19,3 km/h (3 Bft) 95,74 %
19.12.2022 11:20 4,3 C 3,9 C 1,1 C 98 % 1018,6 hPa 0,0 l/m 0 min 0 min 45 W/m 12,9 km/h (3 Bft) 97,87 %
19.12.2022 11:22 4,4 C 3,9 C 1,1 C 98 % 1018,6 hPa 0,0 l/m 0 min 0 min 41 W/m 19,3 km/h (3 Bft) 97,87 %
19.12.2022 11:24 4,4 C 4,4 C 1,1 C 98 % 1018,6 hPa 0,0 l/m 0 min 0 min 41 W/m 22,5 km/h (4 Bft) 97,83 %
19.12.2022 11:26 4,4 C 4,4 C 1,1 C 98 % 1018,6 hPa 0,0 l/m 0 min 0 min 49 W/m 19,3 km/h (3 Bft) 97,87 %
19.12.2022 11:28 4,4 C 4,4 C 1,1 C 98 % 1018,5 hPa 0,0 l/m 0 min 0 min 45 W/m 12,9 km/h (3 Bft) 95,74 %
19.12.2022 11:30 4,5 C 4,4 C 1,1 C 98 % 1018,6 hPa 0,0 l/m 0 min 0 min 39 W/m 16,1 km/h (3 Bft) 97,87 %
19.12.2022 11:32 4,5 C 4,4 C 1,1 C 98 % 1018,6 hPa 0,0 l/m 0 min 0 min 34 W/m 12,9 km/h (3 Bft) 100,00 %
19.12.2022 11:34 4,6 C 4,4 C 1,1 C 98 % 1018,6 hPa 0,0 l/m 0 min 0 min 31 W/m 12,9 km/h (3 Bft) 100,00 %
19.12.2022 11:36 4,6 C 4,4 C 1,1 C 98 % 1018,6 hPa 0,0 l/m 0 min 0 min 25 W/m 16,1 km/h (3 Bft) 97,87 %
19.12.2022 11:38 4,6 C 4,4 C 1,1 C 98 % 1018,5 hPa 0,0 l/m 0 min 0 min 24 W/m 12,9 km/h (3 Bft) 100,00 %
19.12.2022 11:40 4,6 C 4,4 C 1,1 C 98 % 1018,6 hPa 0,0 l/m 0 min 0 min 25 W/m 25,7 km/h (4 Bft) 100,00 %
19.12.2022 11:42 4,6 C 4,4 C 1,1 C 98 % 1018,5 hPa 0,0 l/m 0 min 0 min 28 W/m 16,1 km/h (3 Bft) 78,72 %
19.12.2022 11:44 4,6 C 4,4 C 1,1 C 98 % 1018,4 hPa 0,0 l/m 0 min 0 min 31 W/m 19,3 km/h (3 Bft) 72,09 %
19.12.2022 11:46 4,6 C 4,4 C 1,1 C 98 % 1018,4 hPa 0,0 l/m 0 min 0 min 33 W/m 22,5 km/h (4 Bft) 97,87 %
19.12.2022 11:48 4,6 C 4,4 C 1,1 C 98 % 1018,4 hPa 0,0 l/m 0 min 0 min 33 W/m 19,3 km/h (3 Bft) 100,00 %
19.12.2022 11:50 4,6 C 4,4 C 1,1 C 98 % 1018,4 hPa 0,0 l/m 0 min 0 min 34 W/m 22,5 km/h (4 Bft) 100,00 %
19.12.2022 11:52 4,7 C 4,4 C 1,1 C 98 % 1018,3 hPa 0,0 l/m 0 min 0 min 34 W/m 22,5 km/h (4 Bft) 100,00 %
19.12.2022 11:54 4,7 C 4,4 C 1,1 C 98 % 1018,3 hPa 0,0 l/m 0 min 0 min 32 W/m 19,3 km/h (3 Bft) 97,87 %
19.12.2022 11:56 4,7 C 4,4 C 1,1 C 98 % 1018,3 hPa 0,0 l/m 0 min 0 min 31 W/m 19,3 km/h (3 Bft) 97,87 %
19.12.2022 11:58 4,7 C 4,4 C 1,7 C 98 % 1018,2 hPa 0,0 l/m 0 min 0 min 29 W/m 19,3 km/h (3 Bft) 100,00 %
19.12.2022 12:00 4,7 C 4,4 C 1,7 C 98 % 1018,3 hPa 0,0 l/m 0 min 0 min 23 W/m 16,1 km/h (3 Bft) 100,00 %
19.12.2022 12:02 4,7 C 4,4 C 1,7 C 98 % 1018,3 hPa 0,0 l/m 0 min 0 min 21 W/m 22,5 km/h (4 Bft) 100,00 %
19.12.2022 12:04 4,7 C 4,4 C 1,1 C 98 % 1018,3 hPa 0,0 l/m 0 min 0 min 21 W/m 16,1 km/h (3 Bft) 100,00 %
19.12.2022 12:08 4,7 C 4,4 C 1,1 C 98 % 1018,3 hPa 0,0 l/m 0 min 0 min 21 W/m 16,1 km/h (3 Bft) 100,00 %
19.12.2022 12:10 4,6 C 4,4 C 1,1 C 98 % 1018,3 hPa 0,0 l/m 0 min 0 min 24 W/m 12,9 km/h (3 Bft) 95,74 %
19.12.2022 12:12 4,6 C 3,9 C 1,1 C 98 % 1018,3 hPa 0,0 l/m 0 min 0 min 23 W/m 12,9 km/h (3 Bft) 100,00 %
19.12.2022 12:14 4,6 C 3,9 C 1,1 C 98 % 1018,2 hPa 0,0 l/m 0 min 0 min 21 W/m 16,1 km/h (3 Bft) 100,00 %
19.12.2022 12:16 4,6 C 3,9 C 1,1 C 98 % 1018,2 hPa 0,0 l/m 0 min 0 min 21 W/m 16,1 km/h (3 Bft) 97,83 %
19.12.2022 12:18 4,6 C 4,4 C 1,1 C 98 % 1018,2 hPa 0,0 l/m 0 min 0 min 25 W/m 16,1 km/h (3 Bft) 97,87 %
19.12.2022 12:20 4,6 C 4,4 C 1,1 C 98 % 1018,2 hPa 0,0 l/m 0 min 0 min 31 W/m 19,3 km/h (3 Bft) 97,87 %
19.12.2022 12:22 4,6 C 4,4 C 1,1 C 98 % 1018,2 hPa 0,0 l/m 0 min 0 min 36 W/m 16,1 km/h (3 Bft) 97,87 %
19.12.2022 12:24 4,6 C 4,4 C 1,1 C 98 % 1018,2 hPa 0,0 l/m 0 min 0 min 38 W/m 19,3 km/h (3 Bft) 97,87 %
19.12.2022 12:26 4,6 C 4,4 C 1,1 C 98 % 1018,2 hPa 0,0 l/m 0 min 0 min 45 W/m 16,1 km/h (3 Bft) 97,87 %
19.12.2022 12:28 4,6 C 4,4 C 1,1 C 98 % 1018,2 hPa 0,0 l/m 0 min 0 min 47 W/m 16,1 km/h (3 Bft) 95,65 %
19.12.2022 12:30 4,6 C 4,4 C 1,1 C 98 % 1018,2 hPa 0,0 l/m 0 min 0 min 47 W/m 19,3 km/h (3 Bft) 95,74 %
19.12.2022 12:32 4,6 C 4,4 C 1,1 C 98 % 1018,3 hPa 0,0 l/m 0 min 0 min 48 W/m 16,1 km/h (3 Bft) 93,62 %
19.12.2022 12:34 4,6 C 4,4 C 1,1 C 98 % 1018,3 hPa 0,0 l/m 0 min 0 min 53 W/m 19,3 km/h (3 Bft) 93,62 %
19.12.2022 12:36 4,6 C 4,4 C 1,7 C 98 % 1018,2 hPa 0,0 l/m 0 min 0 min 47 W/m 12,9 km/h (3 Bft) 95,74 %
19.12.2022 12:38 4,6 C 4,4 C 1,7 C 98 % 1018,2 hPa 0,0 l/m 0 min 0 min 53 W/m 16,1 km/h (3 Bft) 95,74 %
19.12.2022 12:40 4,6 C 4,4 C 1,1 C 98 % 1018,2 hPa 0,0 l/m 0 min 0 min 58 W/m 19,3 km/h (3 Bft) 95,74 %
19.12.2022 12:42 4,6 C 4,4 C 1,7 C 98 % 1018,2 hPa 0,0 l/m 0 min 0 min 63 W/m 22,5 km/h (4 Bft) 95,65 %
19.12.2022 12:44 4,6 C 4,4 C 1,7 C 98 % 1018,2 hPa 0,0 l/m 0 min 0 min 61 W/m 25,7 km/h (4 Bft) 95,74 %
19.12.2022 12:46 4,6 C 4,4 C 1,7 C 98 % 1018,2 hPa 0,0 l/m 0 min 0 min 63 W/m 19,3 km/h (3 Bft) 95,74 %
19.12.2022 12:48 4,6 C 4,4 C 1,7 C 98 % 1018,2 hPa 0,0 l/m 0 min 0 min 63 W/m 16,1 km/h (3 Bft) 95,74 %
19.12.2022 12:50 4,7 C 4,4 C 1,7 C 98 % 1018,2 hPa 0,0 l/m 0 min 0 min 63 W/m 19,3 km/h (3 Bft) 93,62 %
19.12.2022 12:52 4,7 C 4,4 C 1,7 C 98 % 1018,2 hPa 0,0 l/m 0 min 0 min 62 W/m 19,3 km/h (3 Bft) 95,74 %
19.12.2022 12:54 4,7 C 4,4 C 1,7 C 98 % 1018,2 hPa 0,0 l/m 0 min 0 min 64 W/m 19,3 km/h (3 Bft) 95,65 %
19.12.2022 12:56 4,7 C 4,4 C 1,7 C 98 % 1018,1 hPa 0,0 l/m 0 min 0 min 68 W/m 29,0 km/h (5 Bft) 93,62 %
19.12.2022 12:58 4,7 C 4,4 C 1,7 C 98 % 1018,1 hPa 0,0 l/m 0 min 0 min 75 W/m 19,3 km/h (3 Bft) 95,74 %
19.12.2022 13:00 4,7 C 4,4 C 1,7 C 98 % 1018,1 hPa 0,0 l/m 0 min 0 min 80 W/m 19,3 km/h (3 Bft) 95,74 %
19.12.2022 13:02 4,8 C 4,4 C 1,7 C 98 % 1018,0 hPa 0,0 l/m 0 min 0 min 80 W/m 22,5 km/h (4 Bft) 95,74 %
19.12.2022 13:04 4,8 C 4,4 C 1,7 C 98 % 1018,1 hPa 0,0 l/m 0 min 0 min 76 W/m 19,3 km/h (3 Bft) 97,87 %
19.12.2022 13:06 4,8 C 5,0 C 1,7 C 98 % 1018,0 hPa 0,0 l/m 0 min 0 min 82 W/m 25,7 km/h (4 Bft) 95,74 %
19.12.2022 13:08 4,8 C 5,0 C 1,7 C 98 % 1018,1 hPa 0,0 l/m 0 min 0 min 83 W/m 19,3 km/h (3 Bft) 97,83 %
19.12.2022 13:10 4,9 C 5,0 C 1,7 C 98 % 1018,0 hPa 0,0 l/m 0 min 0 min 96 W/m 22,5 km/h (4 Bft) 97,87 %
19.12.2022 13:12 4,9 C 5,0 C 1,7 C 98 % 1017,9 hPa 0,0 l/m 0 min 0 min 116 W/m 19,3 km/h (3 Bft) 97,87 %
19.12.2022 13:14 4,9 C 5,0 C 1,7 C 98 % 1017,9 hPa 0,0 l/m 0 min 0 min 125 W/m 19,3 km/h (3 Bft) 100,00 %
19.12.2022 13:16 4,9 C 5,0 C 1,7 C 98 % 1017,9 hPa 0,0 l/m 0 min 0 min 122 W/m 19,3 km/h (3 Bft) 97,87 %
19.12.2022 13:18 5,0 C 5,0 C 1,7 C 98 % 1017,8 hPa 0,0 l/m 0 min 0 min 134 W/m 22,5 km/h (4 Bft) 100,00 %
19.12.2022 13:20 5,0 C 5,6 C 1,7 C 98 % 1017,8 hPa 0,0 l/m 2 min 0 min 143 W/m 19,3 km/h (3 Bft) 97,83 %
19.12.2022 13:22 5,1 C 5,6 C 1,7 C 98 % 1017,8 hPa 0,0 l/m 0 min 0 min 141 W/m 22,5 km/h (4 Bft) 95,74 %
19.12.2022 13:24 5,1 C 5,6 C 1,7 C 98 % 1017,8 hPa 0,0 l/m 0 min 0 min 139 W/m 16,1 km/h (3 Bft) 97,87 %
19.12.2022 13:26 5,1 C 5,6 C 1,7 C 98 % 1017,7 hPa 0,0 l/m 0 min 0 min 123 W/m 16,1 km/h (3 Bft) 97,87 %
19.12.2022 13:28 5,2 C 5,6 C 1,7 C 98 % 1017,8 hPa 0,0 l/m 0 min 0 min 105 W/m 22,5 km/h (4 Bft) 97,87 %
19.12.2022 13:30 5,2 C 5,0 C 1,7 C 98 % 1017,8 hPa 0,0 l/m 0 min 0 min 92 W/m 16,1 km/h (3 Bft) 97,87 %
19.12.2022 13:32 5,2 C 5,0 C 1,7 C 98 % 1017,7 hPa 0,0 l/m 0 min 0 min 86 W/m 19,3 km/h (3 Bft) 95,65 %
19.12.2022 13:34 5,2 C 5,0 C 1,7 C 98 % 1017,7 hPa 0,0 l/m 0 min 0 min 89 W/m 16,1 km/h (3 Bft) 97,87 %
19.12.2022 13:36 5,2 C 5,0 C 1,7 C 98 % 1017,7 hPa 0,0 l/m 0 min 0 min 90 W/m 12,9 km/h (3 Bft) 97,87 %
19.12.2022 13:38 5,3 C 5,0 C 1,7 C 98 % 1017,7 hPa 0,0 l/m 0 min 0 min 95 W/m 16,1 km/h (3 Bft) 97,87 %
19.12.2022 13:40 5,3 C 5,6 C 1,7 C 98 % 1017,6 hPa 0,0 l/m 0 min 0 min 98 W/m 19,3 km/h (3 Bft) 95,74 %
19.12.2022 13:42 5,3 C 5,6 C 1,7 C 98 % 1017,6 hPa 0,0 l/m 0 min 0 min 99 W/m 16,1 km/h (3 Bft) 97,87 %
19.12.2022 13:44 5,3 C 5,6 C 2,2 C 98 % 1017,6 hPa 0,0 l/m 0 min 0 min 104 W/m 19,3 km/h (3 Bft) 97,83 %
19.12.2022 13:46 5,3 C 5,6 C 2,2 C 98 % 1017,6 hPa 0,0 l/m 0 min 0 min 110 W/m 22,5 km/h (4 Bft) 97,87 %
19.12.2022 13:48 5,3 C 5,6 C 2,2 C 97 % 1017,5 hPa 0,0 l/m 0 min 0 min 111 W/m 22,5 km/h (4 Bft) 97,87 %
19.12.2022 13:50 5,4 C 5,6 C 2,2 C 97 % 1017,6 hPa 0,0 l/m 0 min 0 min 111 W/m 12,9 km/h (3 Bft) 97,87 %
19.12.2022 13:52 5,4 C 5,6 C 2,2 C 98 % 1017,6 hPa 0,0 l/m 0 min 0 min 116 W/m 25,7 km/h (4 Bft) 97,87 %
19.12.2022 13:54 5,4 C 5,6 C 2,2 C 97 % 1017,5 hPa 0,0 l/m 0 min 0 min 117 W/m 22,5 km/h (4 Bft) 95,74 %
19.12.2022 13:56 5,4 C 5,6 C 2,2 C 97 % 1017,5 hPa 0,0 l/m 0 min 0 min 114 W/m 29,0 km/h (5 Bft) 95,74 %
19.12.2022 13:58 5,5 C 5,6 C 2,2 C 97 % 1017,5 hPa 0,0 l/m 0 min 0 min 113 W/m 19,3 km/h (3 Bft) 97,83 %
19.12.2022 14:00 5,5 C 5,6 C 2,2 C 97 % 1017,5 hPa 0,0 l/m 0 min 0 min 113 W/m 22,5 km/h (4 Bft) 97,87 %
19.12.2022 14:02 5,6 C 5,6 C 2,2 C 97 % 1017,5 hPa 0,0 l/m 0 min 0 min 119 W/m 25,7 km/h (4 Bft) 95,74 %
19.12.2022 14:04 5,6 C 5,6 C 2,2 C 97 % 1017,6 hPa 0,0 l/m 0 min 0 min 117 W/m 19,3 km/h (3 Bft) 97,87 %
19.12.2022 14:06 5,6 C 5,6 C 2,2 C 97 % 1017,5 hPa 0,0 l/m 0 min 0 min 111 W/m 16,1 km/h (3 Bft) 97,87 %
19.12.2022 14:08 5,6 C 5,6 C 2,2 C 97 % 1017,5 hPa 0,0 l/m 0 min 0 min 109 W/m 22,5 km/h (4 Bft) 97,87 %
19.12.2022 14:10 5,6 C 5,6 C 2,2 C 97 % 1017,5 hPa 0,0 l/m 0 min 0 min 109 W/m 22,5 km/h (4 Bft) 100,00 %
19.12.2022 14:12 5,6 C 5,6 C 2,2 C 97 % 1017,5 hPa 0,0 l/m 0 min 0 min 113 W/m 22,5 km/h (4 Bft) 100,00 %
19.12.2022 14:14 5,7 C 5,6 C 2,2 C 97 % 1017,5 hPa 0,0 l/m 0 min 0 min 113 W/m 25,7 km/h (4 Bft) 100,00 %
19.12.2022 14:16 5,7 C 5,6 C 2,2 C 97 % 1017,5 hPa 0,0 l/m 0 min 0 min 105 W/m 19,3 km/h (3 Bft) 100,00 %
19.12.2022 14:18 5,7 C 5,6 C 2,2 C 96 % 1017,4 hPa 0,0 l/m 0 min 0 min 102 W/m 19,3 km/h (3 Bft) 97,87 %
19.12.2022 14:20 5,7 C 5,6 C 2,2 C 96 % 1017,4 hPa 0,0 l/m 0 min 0 min 98 W/m 22,5 km/h (4 Bft) 100,00 %
19.12.2022 14:22 5,7 C 5,6 C 2,2 C 96 % 1017,4 hPa 0,0 l/m 0 min 0 min 96 W/m 25,7 km/h (4 Bft) 100,00 %
19.12.2022 14:24 5,7 C 5,6 C 1,7 C 96 % 1017,4 hPa 0,0 l/m 0 min 0 min 103 W/m 12,9 km/h (3 Bft) 95,65 %
19.12.2022 14:26 5,7 C 5,6 C 2,2 C 96 % 1017,4 hPa 0,0 l/m 0 min 0 min 97 W/m 25,7 km/h (4 Bft) 97,87 %
19.12.2022 14:28 5,7 C 5,6 C 2,2 C 96 % 1017,4 hPa 0,0 l/m 0 min 0 min 85 W/m 19,3 km/h (3 Bft) 100,00 %
19.12.2022 14:30 5,7 C 5,6 C 1,7 C 96 % 1017,4 hPa 0,0 l/m 0 min 0 min 80 W/m 16,1 km/h (3 Bft) 97,87 %
19.12.2022 14:32 5,7 C 5,6 C 1,7 C 96 % 1017,3 hPa 0,0 l/m 0 min 0 min 75 W/m 22,5 km/h (4 Bft) 93,62 %
19.12.2022 14:34 5,7 C 5,6 C 1,7 C 95 % 1017,4 hPa 0,0 l/m 0 min 0 min 71 W/m 19,3 km/h (3 Bft) 97,87 %
19.12.2022 14:36 5,7 C 5,6 C 1,7 C 95 % 1017,4 hPa 0,0 l/m 0 min 0 min 68 W/m 19,3 km/h (3 Bft) 97,83 %
19.12.2022 14:38 5,7 C 5,0 C 1,7 C 95 % 1017,4 hPa 0,0 l/m 0 min 0 min 62 W/m 19,3 km/h (3 Bft) 97,87 %
19.12.2022 14:40 5,6 C 5,0 C 1,7 C 95 % 1017,4 hPa 0,0 l/m 0 min 0 min 57 W/m 19,3 km/h (3 Bft) 97,87 %
19.12.2022 14:42 5,6 C 5,0 C 1,7 C 95 % 1017,4 hPa 0,0 l/m 0 min 0 min 52 W/m 25,7 km/h (4 Bft) 97,87 %
19.12.2022 14:44 5,6 C 5,0 C 1,7 C 95 % 1017,4 hPa 0,0 l/m 0 min 0 min 48 W/m 25,7 km/h (4 Bft) 95,74 %
19.12.2022 14:46 5,6 C 5,0 C 1,7 C 95 % 1017,3 hPa 0,0 l/m 0 min 0 min 45 W/m 22,5 km/h (4 Bft) 95,74 %
19.12.2022 14:48 5,6 C 5,0 C 1,7 C 94 % 1017,3 hPa 0,0 l/m 0 min 0 min 42 W/m 19,3 km/h (3 Bft) 95,65 %
19.12.2022 14:50 5,6 C 5,0 C 1,7 C 94 % 1017,2 hPa 0,0 l/m 0 min 0 min 44 W/m 19,3 km/h (3 Bft) 97,87 %
19.12.2022 14:52 5,6 C 5,0 C 1,7 C 94 % 1017,3 hPa 0,0 l/m 0 min 0 min 46 W/m 25,7 km/h (4 Bft) 97,87 %
19.12.2022 14:54 5,6 C 5,0 C 1,7 C 94 % 1017,2 hPa 0,0 l/m 0 min 0 min 47 W/m 16,1 km/h (3 Bft) 97,87 %
19.12.2022 14:56 5,6 C 5,0 C 1,7 C 94 % 1017,2 hPa 0,0 l/m 0 min 0 min 49 W/m 19,3 km/h (3 Bft) 97,87 %
19.12.2022 14:58 5,6 C 5,0 C 1,7 C 94 % 1017,1 hPa 0,0 l/m 0 min 0 min 53 W/m 16,1 km/h (3 Bft) 97,87 %
19.12.2022 15:00 5,6 C 5,0 C 1,7 C 94 % 1017,0 hPa 0,0 l/m 0 min 0 min 54 W/m 16,1 km/h (3 Bft) 97,87 %
19.12.2022 15:02 5,6 C 5,0 C 1,7 C 94 % 1017,0 hPa 0,0 l/m 0 min 0 min 54 W/m 19,3 km/h (3 Bft) 95,65 %
19.12.2022 15:04 5,5 C 5,0 C 1,7 C 94 % 1017,0 hPa 0,0 l/m 0 min 0 min 52 W/m 19,3 km/h (3 Bft) 97,87 %
19.12.2022 15:06 5,5 C 5,0 C 1,7 C 94 % 1017,0 hPa 0,0 l/m 0 min 0 min 48 W/m 22,5 km/h (4 Bft) 97,92 %
19.12.2022 15:08 5,6 C 5,0 C 1,7 C 94 % 1016,9 hPa 0,0 l/m 0 min 0 min 44 W/m 29,0 km/h (5 Bft) 100,00 %
19.12.2022 15:10 5,5 C 5,0 C 1,7 C 94 % 1016,9 hPa 0,0 l/m 0 min 0 min 40 W/m 22,5 km/h (4 Bft) 97,83 %
19.12.2022 15:12 5,5 C 5,0 C 1,7 C 93 % 1016,9 hPa 0,0 l/m 0 min 0 min 38 W/m 19,3 km/h (3 Bft) 97,87 %
19.12.2022 15:14 5,5 C 5,0 C 1,7 C 94 % 1016,8 hPa 0,0 l/m 0 min 0 min 34 W/m 16,1 km/h (3 Bft) 95,74 %
19.12.2022 15:16 5,5 C 5,0 C 1,7 C 94 % 1016,9 hPa 0,0 l/m 0 min 0 min 32 W/m 12,9 km/h (3 Bft) 97,87 %
19.12.2022 15:18 5,5 C 5,0 C 1,7 C 93 % 1016,9 hPa 0,0 l/m 0 min 0 min 27 W/m 12,9 km/h (3 Bft) 97,87 %
19.12.2022 15:20 5,5 C 5,0 C 1,7 C 93 % 1016,9 hPa 0,0 l/m 0 min 0 min 26 W/m 22,5 km/h (4 Bft) 97,87 %
19.12.2022 15:22 5,5 C 5,0 C 1,7 C 93 % 1016,8 hPa 0,0 l/m 0 min 0 min 25 W/m 19,3 km/h (3 Bft) 97,87 %
19.12.2022 15:24 5,5 C 5,0 C 1,7 C 93 % 1016,8 hPa 0,0 l/m 0 min 0 min 25 W/m 19,3 km/h (3 Bft) 97,83 %
19.12.2022 15:26 5,5 C 5,0 C 1,7 C 93 % 1016,8 hPa 0,0 l/m 0 min 0 min 23 W/m 19,3 km/h (3 Bft) 95,74 %
19.12.2022 15:28 5,5 C 5,0 C 1,7 C 93 % 1016,8 hPa 0,0 l/m 0 min 0 min 20 W/m 19,3 km/h (3 Bft) 97,87 %
19.12.2022 15:30 5,5 C 5,0 C 1,7 C 93 % 1016,8 hPa 0,0 l/m 0 min 0 min 19 W/m 19,3 km/h (3 Bft) 97,87 %
19.12.2022 15:32 5,5 C 5,0 C 1,7 C 93 % 1016,7 hPa 0,0 l/m 0 min 0 min 18 W/m 19,3 km/h (3 Bft) 97,87 %
19.12.2022 15:34 5,5 C 5,0 C 1,7 C 93 % 1016,8 hPa 0,0 l/m 0 min 0 min 16 W/m 16,1 km/h (3 Bft) 97,87 %
19.12.2022 15:36 5,5 C 5,0 C 1,7 C 93 % 1016,8 hPa 0,0 l/m 0 min 0 min 16 W/m 16,1 km/h (3 Bft) 95,74 %
19.12.2022 15:38 5,5 C 5,0 C 1,7 C 93 % 1016,7 hPa 0,0 l/m 0 min 0 min 18 W/m 19,3 km/h (3 Bft) 95,65 %
19.12.2022 15:40 5,5 C 5,0 C 1,7 C 93 % 1016,7 hPa 0,0 l/m 0 min 0 min 16 W/m 22,5 km/h (4 Bft) 97,87 %
19.12.2022 15:42 5,5 C 5,0 C 1,7 C 93 % 1016,7 hPa 0,0 l/m 0 min 0 min 16 W/m 22,5 km/h (4 Bft) 95,74 %
19.12.2022 15:44 5,6 C 5,0 C 1,7 C 93 % 1016,7 hPa 0,0 l/m 0 min 0 min 14 W/m 19,3 km/h (3 Bft) 93,62 %
19.12.2022 15:46 5,6 C 5,0 C 1,7 C 93 % 1016,7 hPa 0,0 l/m 0 min 0 min 14 W/m 22,5 km/h (4 Bft) 97,87 %
19.12.2022 15:48 5,6 C 5,0 C 1,7 C 93 % 1016,7 hPa 0,0 l/m 0 min 0 min 13 W/m 19,3 km/h (3 Bft) 97,87 %
19.12.2022 15:50 5,6 C 5,0 C 1,7 C 93 % 1016,6 hPa 0,0 l/m 0 min 0 min 12 W/m 19,3 km/h (3 Bft) 95,65 %
19.12.2022 15:52 5,6 C 5,0 C 1,7 C 93 % 1016,6 hPa 0,0 l/m 0 min 0 min 11 W/m 22,5 km/h (4 Bft) 93,62 %
19.12.2022 15:54 5,6 C 5,0 C 1,7 C 93 % 1016,5 hPa 0,0 l/m 0 min 0 min 9 W/m 22,5 km/h (4 Bft) 97,87 %
19.12.2022 15:56 5,6 C 5,0 C 1,7 C 93 % 1016,4 hPa 0,0 l/m 0 min 0 min 7 W/m 25,7 km/h (4 Bft) 95,74 %
19.12.2022 15:58 5,6 C 5,0 C 1,7 C 93 % 1016,3 hPa 0,0 l/m 0 min 0 min 5 W/m 19,3 km/h (3 Bft) 100,00 %
19.12.2022 16:00 5,6 C 5,0 C 1,7 C 93 % 1016,3 hPa 0,0 l/m 0 min 0 min 5 W/m 16,1 km/h (3 Bft) 95,74 %
19.12.2022 16:02 5,6 C 5,0 C 1,7 C 93 % 1016,2 hPa 0,0 l/m 0 min 0 min 3 W/m 19,3 km/h (3 Bft) 97,87 %
19.12.2022 16:04 5,6 C 5,0 C 1,7 C 93 % 1016,2 hPa 0,0 l/m 0 min 0 min 0 W/m 19,3 km/h (3 Bft) 97,83 %
19.12.2022 16:06 5,6 C 5,0 C 1,7 C 93 % 1016,2 hPa 0,0 l/m 0 min 0 min 0 W/m 19,3 km/h (3 Bft) 93,62 %
19.12.2022 16:08 5,6 C 5,0 C 1,7 C 93 % 1016,2 hPa 0,0 l/m 0 min 0 min 0 W/m 16,1 km/h (3 Bft) 95,74 %
19.12.2022 16:10 5,7 C 5,0 C 1,7 C 93 % 1016,1 hPa 0,0 l/m 0 min 0 min 0 W/m 19,3 km/h (3 Bft) 95,74 %
19.12.2022 16:12 5,7 C 5,0 C 1,7 C 93 % 1016,1 hPa 0,0 l/m 0 min 0 min 0 W/m 16,1 km/h (3 Bft) 95,74 %
19.12.2022 16:14 5,7 C 5,0 C 1,7 C 93 % 1016,1 hPa 0,0 l/m 0 min 0 min 0 W/m 19,3 km/h (3 Bft) 95,74 %
19.12.2022 16:16 5,7 C 5,0 C 1,7 C 93 % 1016,3 hPa 0,0 l/m 0 min 0 min 0 W/m 19,3 km/h (3 Bft) 95,65 %
19.12.2022 16:18 5,7 C 5,0 C 1,7 C 93 % 1016,3 hPa 0,0 l/m 0 min 0 min 0 W/m 12,9 km/h (3 Bft) 97,87 %
19.12.2022 16:20 5,7 C 5,0 C 1,7 C 93 % 1016,4 hPa 0,0 l/m 0 min 0 min 0 W/m 16,1 km/h (3 Bft) 97,87 %
19.12.2022 16:22 5,8 C 5,0 C 1,7 C 92 % 1016,5 hPa 0,0 l/m 0 min 0 min 0 W/m 16,1 km/h (3 Bft) 95,74 %
19.12.2022 16:24 5,8 C 5,6 C 1,7 C 92 % 1016,4 hPa 0,0 l/m 0 min 0 min 0 W/m 19,3 km/h (3 Bft) 97,87 %
19.12.2022 16:26 5,8 C 5,6 C 1,7 C 92 % 1016,4 hPa 0,0 l/m 0 min 0 min 0 W/m 19,3 km/h (3 Bft) 97,87 %
19.12.2022 16:28 5,8 C 5,6 C 1,7 C 92 % 1016,4 hPa 0,0 l/m 0 min 0 min 0 W/m 19,3 km/h (3 Bft) 95,65 %
19.12.2022 16:30 5,8 C 5,6 C 1,7 C 92 % 1016,4 hPa 0,0 l/m 0 min 0 min 0 W/m 16,1 km/h (3 Bft) 97,87 %
19.12.2022 16:32 5,8 C 5,6 C 1,7 C 92 % 1016,3 hPa 0,0 l/m 0 min 0 min 0 W/m 29,0 km/h (5 Bft) 95,74 %
19.12.2022 16:34 5,9 C 5,6 C 1,7 C 92 % 1016,3 hPa 0,0 l/m 0 min 0 min 0 W/m 19,3 km/h (3 Bft) 93,62 %
19.12.2022 16:36 5,9 C 5,6 C 1,7 C 92 % 1016,3 hPa 0,0 l/m 0 min 0 min 0 W/m 19,3 km/h (3 Bft) 95,74 %
19.12.2022 16:38 5,9 C 5,6 C 1,7 C 92 % 1016,4 hPa 0,0 l/m 0 min 0 min 0 W/m 22,5 km/h (4 Bft) 95,74 %
19.12.2022 16:40 5,9 C 5,6 C 1,7 C 92 % 1016,4 hPa 0,0 l/m 0 min 0 min 0 W/m 29,0 km/h (5 Bft) 95,65 %
19.12.2022 16:42 5,9 C 5,6 C 1,7 C 92 % 1016,4 hPa 0,0 l/m 0 min 0 min 0 W/m 29,0 km/h (5 Bft) 93,62 %
19.12.2022 16:44 6,0 C 5,6 C 1,7 C 92 % 1016,4 hPa 0,0 l/m 0 min 0 min 0 W/m 19,3 km/h (3 Bft) 93,62 %
19.12.2022 16:46 6,0 C 5,6 C 1,7 C 92 % 1016,4 hPa 0,0 l/m 0 min 0 min 0 W/m 19,3 km/h (3 Bft) 93,62 %
19.12.2022 16:48 6,1 C 5,6 C 1,7 C 92 % 1016,4 hPa 0,0 l/m 0 min 0 min 0 W/m 22,5 km/h (4 Bft) 91,49 %
19.12.2022 16:50 6,1 C 5,6 C 1,7 C 92 % 1016,3 hPa 0,0 l/m 0 min 0 min 0 W/m 22,5 km/h (4 Bft) 100,00 %
19.12.2022 16:52 6,1 C 5,6 C 1,7 C 92 % 1016,4 hPa 0,0 l/m 0 min 0 min 0 W/m 25,7 km/h (4 Bft) 97,87 %
19.12.2022 16:54 6,1 C 5,6 C 1,7 C 92 % 1016,5 hPa 0,0 l/m 0 min 0 min 0 W/m 22,5 km/h (4 Bft) 97,83 %
19.12.2022 16:56 6,1 C 5,6 C 1,7 C 92 % 1016,5 hPa 0,0 l/m 0 min 0 min 0 W/m 19,3 km/h (3 Bft) 97,87 %
19.12.2022 16:58 6,2 C 5,6 C 1,7 C 92 % 1016,5 hPa 0,0 l/m 0 min 0 min 0 W/m 25,7 km/h (4 Bft) 97,87 %
19.12.2022 17:00 6,2 C 5,6 C 1,7 C 92 % 1016,6 hPa 0,0 l/m 0 min 0 min 0 W/m 25,7 km/h (4 Bft) 95,74 %
19.12.2022 17:02 6,2 C 5,6 C 1,7 C 92 % 1016,6 hPa 0,0 l/m 0 min 0 min 0 W/m 19,3 km/h (3 Bft) 97,87 %
19.12.2022 17:04 6,2 C 5,6 C 1,7 C 92 % 1016,5 hPa 0,0 l/m 0 min 0 min 0 W/m 22,5 km/h (4 Bft) 100,00 %
19.12.2022 17:06 6,3 C 5,6 C 1,7 C 91 % 1016,5 hPa 0,0 l/m 0 min 0 min 0 W/m 25,7 km/h (4 Bft) 100,00 %
19.12.2022 17:08 6,3 C 5,6 C 1,7 C 91 % 1016,5 hPa 0,0 l/m 0 min 0 min 0 W/m 19,3 km/h (3 Bft) 100,00 %
19.12.2022 17:10 6,3 C 5,6 C 1,7 C 91 % 1016,5 hPa 0,0 l/m 0 min 0 min 0 W/m 19,3 km/h (3 Bft) 100,00 %
19.12.2022 17:12 6,2 C 5,6 C 1,7 C 91 % 1016,5 hPa 0,0 l/m 0 min 0 min 0 W/m 19,3 km/h (3 Bft) 100,00 %
19.12.2022 17:14 6,2 C 5,6 C 2,2 C 91 % 1016,5 hPa 0,0 l/m 0 min 0 min 0 W/m 19,3 km/h (3 Bft) 100,00 %
19.12.2022 17:16 6,2 C 5,6 C 2,2 C 91 % 1016,4 hPa 0,0 l/m 0 min 0 min 0 W/m 19,3 km/h (3 Bft) 97,87 %
19.12.2022 17:18 6,2 C 5,6 C 2,2 C 91 % 1016,4 hPa 0,0 l/m 0 min 0 min 0 W/m 19,3 km/h (3 Bft) 100,00 %
19.12.2022 17:20 6,2 C 5,6 C 2,2 C 91 % 1016,5 hPa 0,0 l/m 0 min 0 min 0 W/m 22,5 km/h (4 Bft) 100,00 %
19.12.2022 17:22 6,2 C 5,6 C 2,2 C 91 % 1016,5 hPa 0,0 l/m 0 min 0 min 0 W/m 19,3 km/h (3 Bft) 100,00 %
19.12.2022 17:24 6,2 C 5,6 C 2,2 C 91 % 1016,5 hPa 0,0 l/m 0 min 0 min 0 W/m 22,5 km/h (4 Bft) 97,87 %
19.12.2022 17:26 6,2 C 5,6 C 2,2 C 91 % 1016,5 hPa 0,0 l/m 0 min 0 min 0 W/m 19,3 km/h (3 Bft) 100,00 %
19.12.2022 17:28 6,2 C 5,6 C 2,2 C 91 % 1016,4 hPa 0,0 l/m 0 min 0 min 0 W/m 22,5 km/h (4 Bft) 100,00 %
19.12.2022 17:30 6,2 C 5,6 C 2,2 C 91 % 1016,4 hPa 0,0 l/m 0 min 0 min 0 W/m 22,5 km/h (4 Bft) 100,00 %
19.12.2022 17:32 6,2 C 5,6 C 2,2 C 91 % 1016,4 hPa 0,0 l/m 0 min 0 min 0 W/m 16,1 km/h (3 Bft) 100,00 %
19.12.2022 17:34 6,2 C 5,6 C 2,2 C 91 % 1016,4 hPa 0,0 l/m 0 min 0 min 0 W/m 19,3 km/h (3 Bft) 97,87 %
19.12.2022 17:36 6,1 C 5,6 C 2,2 C 91 % 1016,3 hPa 0,0 l/m 0 min 0 min 0 W/m 22,5 km/h (4 Bft) 100,00 %
19.12.2022 17:38 6,1 C 5,6 C 2,2 C 91 % 1016,4 hPa 0,0 l/m 0 min 0 min 0 W/m 22,5 km/h (4 Bft) 100,00 %
19.12.2022 17:40 6,1 C 5,6 C 2,2 C 91 % 1016,4 hPa 0,0 l/m 0 min 0 min 0 W/m 16,1 km/h (3 Bft) 100,00 %
19.12.2022 17:42 6,1 C 5,6 C 2,2 C 91 % 1016,5 hPa 0,0 l/m 0 min 0 min 0 W/m 22,5 km/h (4 Bft) 100,00 %
19.12.2022 17:44 6,1 C 5,6 C 2,2 C 91 % 1016,5 hPa 0,0 l/m 0 min 0 min 0 W/m 22,5 km/h (4 Bft) 100,00 %
19.12.2022 17:46 6,1 C 5,6 C 2,2 C 91 % 1016,5 hPa 0,0 l/m 0 min 0 min 0 W/m 19,3 km/h (3 Bft) 100,00 %
19.12.2022 17:48 6,1 C 5,6 C 2,2 C 91 % 1016,5 hPa 0,0 l/m 0 min 0 min 0 W/m 22,5 km/h (4 Bft) 100,00 %
19.12.2022 17:50 6,1 C 5,6 C 2,2 C 91 % 1016,5 hPa 0,0 l/m 0 min 0 min 0 W/m 25,7 km/h (4 Bft) 100,00 %
19.12.2022 17:52 6,1 C 5,6 C 2,2 C 91 % 1016,6 hPa 0,0 l/m 0 min 0 min 0 W/m 19,3 km/h (3 Bft) 100,00 %
19.12.2022 17:54 6,1 C 5,6 C 2,2 C 91 % 1016,6 hPa 0,0 l/m 0 min 0 min 0 W/m 19,3 km/h (3 Bft) 100,00 %
19.12.2022 17:56 6,1 C 5,6 C 2,2 C 91 % 1016,6 hPa 0,0 l/m 0 min 0 min 0 W/m 22,5 km/h (4 Bft) 95,74 %
19.12.2022 17:58 6,2 C 5,6 C 2,2 C 91 % 1016,6 hPa 0,0 l/m 0 min 0 min 0 W/m 19,3 km/h (3 Bft) 100,00 %
19.12.2022 18:00 6,2 C 5,6 C 2,2 C 91 % 1016,8 hPa 0,0 l/m 0 min 0 min 0 W/m 22,5 km/h (4 Bft) 100,00 %
19.12.2022 18:02 6,2 C 5,6 C 2,8 C 91 % 1016,9 hPa 0,0 l/m 0 min 0 min 0 W/m 22,5 km/h (4 Bft) 97,83 %
19.12.2022 18:04 6,2 C 5,6 C 2,8 C 91 % 1016,8 hPa 0,0 l/m 0 min 0 min 0 W/m 16,1 km/h (3 Bft) 97,87 %
19.12.2022 18:08 6,2 C 5,6 C 2,2 C 91 % 1016,9 hPa 0,0 l/m 0 min 0 min 0 W/m 19,3 km/h (3 Bft) 96,81 %
19.12.2022 18:10 6,2 C 5,6 C 2,2 C 91 % 1016,9 hPa 0,0 l/m 0 min 0 min 0 W/m 12,9 km/h (3 Bft) 91,49 %
19.12.2022 18:12 6,2 C 5,6 C 2,2 C 91 % 1017,0 hPa 0,0 l/m 0 min 0 min 0 W/m 16,1 km/h (3 Bft) 93,62 %
19.12.2022 18:14 6,3 C 5,6 C 2,2 C 91 % 1017,0 hPa 0,0 l/m 0 min 0 min 0 W/m 12,9 km/h (3 Bft) 97,83 %
19.12.2022 18:16 6,2 C 5,6 C 2,2 C 91 % 1017,0 hPa 0,0 l/m 0 min 0 min 0 W/m 16,1 km/h (3 Bft) 93,62 %
19.12.2022 18:18 6,3 C 5,6 C 2,2 C 91 % 1017,0 hPa 0,0 l/m 0 min 0 min 0 W/m 12,9 km/h (3 Bft) 97,87 %
19.12.2022 18:20 6,2 C 5,6 C 2,2 C 91 % 1016,9 hPa 0,0 l/m 0 min 0 min 0 W/m 12,9 km/h (3 Bft) 95,74 %
19.12.2022 18:22 6,3 C 5,6 C 2,2 C 91 % 1017,0 hPa 0,0 l/m 0 min 0 min 0 W/m 16,1 km/h (3 Bft) 95,74 %
19.12.2022 18:24 6,3 C 5,6 C 2,2 C 91 % 1017,0 hPa 0,0 l/m 0 min 0 min 0 W/m 16,1 km/h (3 Bft) 98,00 %
19.12.2022 18:26 6,3 C 5,6 C 2,2 C 91 % 1017,0 hPa 0,0 l/m 0 min 0 min 0 W/m 12,9 km/h (3 Bft) 97,83 %
19.12.2022 18:28 6,3 C 5,6 C 2,8 C 91 % 1017,0 hPa 0,0 l/m 0 min 0 min 0 W/m 19,3 km/h (3 Bft) 97,87 %
19.12.2022 18:30 6,3 C 5,6 C 2,2 C 91 % 1017,1 hPa 0,0 l/m 0 min 0 min 0 W/m 6,4 km/h (2 Bft) 93,62 %
19.12.2022 18:32 6,3 C 5,6 C 2,2 C 91 % 1017,0 hPa 0,0 l/m 0 min 0 min 0 W/m 12,9 km/h (3 Bft) 95,74 %
19.12.2022 18:34 6,3 C 5,6 C 2,8 C 91 % 1017,0 hPa 0,0 l/m 0 min 0 min 0 W/m 16,1 km/h (3 Bft) 95,74 %
19.12.2022 18:36 6,3 C 5,6 C 2,8 C 91 % 1017,1 hPa 0,0 l/m 0 min 0 min 0 W/m 16,1 km/h (3 Bft) 95,74 %
19.12.2022 18:38 6,3 C 5,6 C 2,8 C 91 % 1017,0 hPa 0,0 l/m 0 min 0 min 0 W/m 16,1 km/h (3 Bft) 91,49 %
19.12.2022 18:40 6,3 C 5,6 C 2,2 C 91 % 1017,0 hPa 0,0 l/m 0 min 0 min 0 W/m 16,1 km/h (3 Bft) 93,48 %
19.12.2022 18:42 6,3 C 5,6 C 2,8 C 91 % 1016,9 hPa 0,0 l/m 0 min 0 min 0 W/m 19,3 km/h (3 Bft) 95,74 %
19.12.2022 18:44 6,3 C 5,6 C 2,8 C 91 % 1016,8 hPa 0,0 l/m 0 min 0 min 0 W/m 16,1 km/h (3 Bft) 95,74 %
19.12.2022 18:46 6,3 C 5,6 C 2,8 C 91 % 1016,8 hPa 0,0 l/m 0 min 0 min 0 W/m 16,1 km/h (3 Bft) 95,74 %
19.12.2022 18:48 6,3 C 5,6 C 2,8 C 91 % 1016,8 hPa 0,0 l/m 0 min 0 min 0 W/m 29,0 km/h (5 Bft) 93,62 %
19.12.2022 18:50 6,3 C 5,6 C 2,8 C 91 % 1016,8 hPa 0,0 l/m 0 min 0 min 0 W/m 12,9 km/h (3 Bft) 95,74 %
19.12.2022 18:52 6,3 C 5,6 C 2,8 C 91 % 1016,8 hPa 0,0 l/m 0 min 0 min 0 W/m 16,1 km/h (3 Bft) 93,62 %
19.12.2022 18:54 6,3 C 5,6 C 2,8 C 91 % 1016,9 hPa 0,0 l/m 0 min 0 min 0 W/m 16,1 km/h (3 Bft) 95,65 %
19.12.2022 18:56 6,3 C 5,6 C 2,8 C 91 % 1016,9 hPa 0,0 l/m 0 min 0 min 0 W/m 12,9 km/h (3 Bft) 95,74 %
19.12.2022 18:58 6,3 C 5,6 C 2,8 C 91 % 1016,9 hPa 0,0 l/m 0 min 0 min 0 W/m 16,1 km/h (3 Bft) 95,74 %
19.12.2022 19:00 6,3 C 5,6 C 2,8 C 91 % 1017,0 hPa 0,0 l/m 0 min 0 min 0 W/m 12,9 km/h (3 Bft) 93,62 %
19.12.2022 19:02 6,4 C 5,6 C 2,8 C 91 % 1017,0 hPa 0,0 l/m 0 min 0 min 0 W/m 12,9 km/h (3 Bft) 93,33 %
19.12.2022 19:04 6,4 C 5,6 C 2,8 C 91 % 1017,0 hPa 0,0 l/m 0 min 0 min 0 W/m 16,1 km/h (3 Bft) 97,87 %
19.12.2022 19:06 6,4 C 5,6 C 2,8 C 91 % 1017,0 hPa 0,0 l/m 0 min 0 min 0 W/m 12,9 km/h (3 Bft) 96,61 %
19.12.2022 19:08 6,4 C 5,6 C 2,8 C 91 % 1017,0 hPa 0,0 l/m 0 min 0 min 0 W/m 9,7 km/h (2 Bft) 97,14 %
19.12.2022 19:10 6,4 C 5,6 C 2,8 C 91 % 1017,0 hPa 0,0 l/m 0 min 0 min 0 W/m 6,4 km/h (2 Bft) 97,87 %
19.12.2022 19:12 6,4 C 5,6 C 2,8 C 91 % 1017,0 hPa 0,0 l/m 0 min 0 min 0 W/m 12,9 km/h (3 Bft) 97,87 %
19.12.2022 19:14 6,4 C 5,6 C 2,8 C 91 % 1016,9 hPa 0,0 l/m 0 min 0 min 0 W/m 6,4 km/h (2 Bft) 97,87 %
19.12.2022 19:16 6,4 C 5,6 C 2,8 C 91 % 1017,0 hPa 0,0 l/m 0 min 0 min 0 W/m 12,9 km/h (3 Bft) 97,87 %
19.12.2022 19:18 6,4 C 5,6 C 2,8 C 91 % 1016,9 hPa 0,0 l/m 0 min 0 min 0 W/m 12,9 km/h (3 Bft) 97,83 %
19.12.2022 19:20 6,4 C 5,6 C 2,8 C 91 % 1016,8 hPa 0,0 l/m 0 min 0 min 0 W/m 12,9 km/h (3 Bft) 97,87 %
19.12.2022 19:22 6,4 C 5,6 C 2,8 C 91 % 1016,7 hPa 0,0 l/m 0 min 0 min 0 W/m 6,4 km/h (2 Bft) 97,87 %
19.12.2022 19:24 6,4 C 5,6 C 2,8 C 91 % 1016,8 hPa 0,0 l/m 0 min 0 min 0 W/m 12,9 km/h (3 Bft) 97,87 %
19.12.2022 19:26 6,4 C 6,1 C 2,8 C 91 % 1016,8 hPa 0,0 l/m 0 min 0 min 0 W/m 12,9 km/h (3 Bft) 97,87 %
19.12.2022 19:28 6,4 C 6,1 C 2,8 C 91 % 1016,7 hPa 0,0 l/m 0 min 0 min 0 W/m 12,9 km/h (3 Bft) 97,87 %
19.12.2022 19:30 6,4 C 6,1 C 2,8 C 91 % 1016,7 hPa 0,0 l/m 0 min 0 min 0 W/m 16,1 km/h (3 Bft) 95,74 %
19.12.2022 19:32 6,4 C 6,1 C 2,8 C 91 % 1016,6 hPa 0,0 l/m 0 min 0 min 0 W/m 12,9 km/h (3 Bft) 97,83 %
19.12.2022 19:34 6,5 C 6,1 C 2,8 C 91 % 1016,8 hPa 0,0 l/m 0 min 0 min 0 W/m 9,7 km/h (2 Bft) 97,87 %
19.12.2022 19:36 6,5 C 6,1 C 2,8 C 91 % 1016,8 hPa 0,0 l/m 0 min 0 min 0 W/m 6,4 km/h (2 Bft) 100,00 %
19.12.2022 19:38 6,5 C 6,1 C 2,8 C 91 % 1016,7 hPa 0,0 l/m 0 min 0 min 0 W/m 12,9 km/h (3 Bft) 100,00 %
19.12.2022 19:40 6,5 C 6,1 C 2,8 C 91 % 1016,7 hPa 0,0 l/m 0 min 0 min 0 W/m 12,9 km/h (3 Bft) 100,00 %
19.12.2022 19:42 6,5 C 6,1 C 2,8 C 91 % 1016,7 hPa 0,0 l/m 0 min 0 min 0 W/m 6,4 km/h (2 Bft) 97,87 %
19.12.2022 19:44 6,5 C 6,1 C 2,8 C 91 % 1016,7 hPa 0,0 l/m 0 min 0 min 0 W/m 6,4 km/h (2 Bft) 100,00 %
19.12.2022 19:46 6,5 C 6,1 C 2,8 C 91 % 1016,6 hPa 0,0 l/m 0 min 0 min 0 W/m 16,1 km/h (3 Bft) 100,00 %
19.12.2022 19:48 6,5 C 6,1 C 2,8 C 91 % 1016,7 hPa 0,0 l/m 0 min 0 min 0 W/m 12,9 km/h (3 Bft) 100,00 %
19.12.2022 19:50 6,5 C 6,1 C 2,8 C 91 % 1016,8 hPa 0,0 l/m 0 min 0 min 0 W/m 12,9 km/h (3 Bft) 100,00 %
19.12.2022 19:52 6,5 C 6,1 C 2,8 C 91 % 1016,8 hPa 0,0 l/m 0 min 0 min 0 W/m 6,4 km/h (2 Bft) 100,00 %
19.12.2022 19:54 6,6 C 6,1 C 2,8 C 91 % 1016,9 hPa 0,0 l/m 0 min 0 min 0 W/m 16,1 km/h (3 Bft) 100,00 %
19.12.2022 19:56 6,6 C 6,1 C 2,8 C 91 % 1016,9 hPa 0,0 l/m 0 min 0 min 0 W/m 6,4 km/h (2 Bft) 97,87 %
19.12.2022 19:58 6,6 C 6,1 C 2,8 C 91 % 1016,9 hPa 0,0 l/m 0 min 0 min 0 W/m 6,4 km/h (2 Bft) 100,00 %
19.12.2022 20:00 6,6 C 6,1 C 2,8 C 91 % 1016,9 hPa 0,0 l/m 0 min 0 min 0 W/m 12,9 km/h (3 Bft) 100,00 %
19.12.2022 20:02 6,6 C 6,1 C 2,8 C 91 % 1016,9 hPa 0,0 l/m 0 min 0 min 0 W/m 12,9 km/h (3 Bft) 100,00 %
19.12.2022 20:04 6,6 C 6,1 C 2,8 C 91 % 1016,8 hPa 0,0 l/m 0 min 0 min 0 W/m 6,4 km/h (2 Bft) 97,87 %
19.12.2022 20:06 6,6 C 6,1 C 2,8 C 91 % 1016,8 hPa 0,0 l/m 0 min 0 min 0 W/m 6,4 km/h (2 Bft) 100,00 %
19.12.2022 20:08 6,6 C 6,1 C 2,8 C 91 % 1016,8 hPa 0,0 l/m 0 min 0 min 0 W/m 16,1 km/h (3 Bft) 97,22 %
19.12.2022 20:10 6,6 C 6,1 C 2,8 C 91 % 1016,7 hPa 0,0 l/m 0 min 0 min 0 W/m 6,4 km/h (2 Bft) 100,00 %
19.12.2022 20:12 6,6 C 5,6 C 2,8 C 91 % 1016,7 hPa 0,0 l/m 0 min 0 min 0 W/m 6,4 km/h (2 Bft) 100,00 %
19.12.2022 20:14 6,6 C 5,6 C 2,2 C 91 % 1016,8 hPa 0,0 l/m 0 min 0 min 0 W/m 3,2 km/h (1 Bft) 100,00 %
19.12.2022 20:16 6,5 C 5,6 C 2,2 C 91 % 1016,8 hPa 0,0 l/m 0 min 0 min 0 W/m 6,4 km/h (2 Bft) 97,87 %
19.12.2022 20:18 6,5 C 6,1 C 2,2 C 91 % 1016,9 hPa 0,0 l/m 0 min 0 min 0 W/m 12,9 km/h (3 Bft) 100,00 %
19.12.2022 20:20 6,6 C 6,1 C 2,2 C 91 % 1016,9 hPa 0,0 l/m 0 min 0 min 0 W/m 6,4 km/h (2 Bft) 100,00 %
19.12.2022 20:22 6,6 C 6,1 C 2,2 C 91 % 1016,9 hPa 0,0 l/m 0 min 0 min 0 W/m 6,4 km/h (2 Bft) 100,00 %
19.12.2022 20:24 6,6 C 6,1 C 2,8 C 91 % 1016,8 hPa 0,0 l/m 0 min 0 min 0 W/m 12,9 km/h (3 Bft) 100,00 %
19.12.2022 20:26 6,6 C 6,1 C 2,8 C 91 % 1016,8 hPa 0,0 l/m 0 min 0 min 0 W/m 16,1 km/h (3 Bft) 100,00 %
19.12.2022 20:28 6,6 C 6,1 C 2,8 C 91 % 1016,9 hPa 0,0 l/m 0 min 0 min 0 W/m 12,9 km/h (3 Bft) 100,00 %
19.12.2022 20:30 6,6 C 6,1 C 2,8 C 91 % 1016,9 hPa 0,0 l/m 0 min 0 min 0 W/m 12,9 km/h (3 Bft) 100,00 %
19.12.2022 20:32 6,7 C 6,7 C 2,8 C 91 % 1016,9 hPa 0,0 l/m 0 min 0 min 0 W/m 12,9 km/h (3 Bft) 95,74 %
19.12.2022 20:34 6,7 C 6,7 C 2,8 C 91 % 1016,9 hPa 0,0 l/m 0 min 0 min 0 W/m 12,9 km/h (3 Bft) 97,87 %
19.12.2022 20:36 6,8 C 6,7 C 2,8 C 91 % 1016,9 hPa 0,0 l/m 0 min 0 min 0 W/m 16,1 km/h (3 Bft) 97,83 %
19.12.2022 20:38 6,8 C 6,7 C 3,3 C 91 % 1016,9 hPa 0,0 l/m 0 min 0 min 0 W/m 12,9 km/h (3 Bft) 97,87 %
19.12.2022 20:40 6,8 C 6,7 C 3,3 C 91 % 1016,9 hPa 0,0 l/m 0 min 0 min 0 W/m 9,7 km/h (2 Bft) 97,87 %
19.12.2022 20:42 6,9 C 6,7 C 3,3 C 92 % 1017,0 hPa 0,0 l/m 0 min 0 min 0 W/m 16,1 km/h (3 Bft) 97,87 %
19.12.2022 20:44 6,9 C 6,7 C 3,3 C 92 % 1017,0 hPa 0,0 l/m 0 min 0 min 0 W/m 6,4 km/h (2 Bft) 95,74 %
19.12.2022 20:46 6,9 C 6,7 C 3,3 C 91 % 1017,0 hPa 0,0 l/m 0 min 0 min 0 W/m 12,9 km/h (3 Bft) 97,87 %
19.12.2022 20:48 7,0 C 6,7 C 3,3 C 91 % 1017,1 hPa 0,0 l/m 0 min 0 min 0 W/m 6,4 km/h (2 Bft) 97,87 %
19.12.2022 20:50 7,1 C 6,7 C 3,3 C 91 % 1017,2 hPa 0,0 l/m 0 min 0 min 0 W/m 16,1 km/h (3 Bft) 95,65 %
19.12.2022 20:52 7,1 C 6,7 C 3,3 C 91 % 1017,1 hPa 0,0 l/m 0 min 0 min 0 W/m 6,4 km/h (2 Bft) 95,74 %
19.12.2022 20:54 7,1 C 6,7 C 3,3 C 91 % 1017,1 hPa 0,0 l/m 0 min 0 min 0 W/m 12,9 km/h (3 Bft) 89,36 %
19.12.2022 20:56 7,1 C 6,7 C 3,3 C 91 % 1017,0 hPa 0,0 l/m 0 min 0 min 0 W/m 12,9 km/h (3 Bft) 95,74 %
19.12.2022 20:58 7,2 C 6,7 C 3,3 C 91 % 1017,0 hPa 0,0 l/m 0 min 0 min 0 W/m 12,9 km/h (3 Bft) 93,62 %
19.12.2022 21:00 7,2 C 6,7 C 3,3 C 91 % 1017,0 hPa 0,0 l/m 0 min 0 min 0 W/m 16,1 km/h (3 Bft) 95,74 %
19.12.2022 21:02 7,3 C 6,7 C 3,3 C 91 % 1017,0 hPa 0,0 l/m 0 min 0 min 0 W/m 9,7 km/h (2 Bft) 95,65 %
19.12.2022 21:04 7,3 C 6,7 C 3,3 C 91 % 1016,9 hPa 0,0 l/m 0 min 0 min 0 W/m 9,7 km/h (2 Bft) 97,87 %
19.12.2022 21:06 7,3 C 6,7 C 3,3 C 91 % 1016,9 hPa 0,0 l/m 0 min 0 min 0 W/m 12,9 km/h (3 Bft) 98,31 %
19.12.2022 21:08 7,3 C 6,7 C 3,3 C 91 % 1016,9 hPa 0,0 l/m 0 min 0 min 0 W/m 12,9 km/h (3 Bft) 97,14 %
19.12.2022 21:10 7,3 C 6,7 C 3,3 C 91 % 1016,9 hPa 0,0 l/m 0 min 0 min 0 W/m 12,9 km/h (3 Bft) 97,87 %
19.12.2022 21:12 7,4 C 6,7 C 3,3 C 91 % 1016,9 hPa 0,0 l/m 0 min 0 min 0 W/m 6,4 km/h (2 Bft) 97,87 %
19.12.2022 21:14 7,4 C 6,7 C 3,3 C 91 % 1016,8 hPa 0,0 l/m 0 min 0 min 0 W/m 12,9 km/h (3 Bft) 95,74 %
19.12.2022 21:16 7,4 C 6,7 C 3,3 C 91 % 1016,9 hPa 0,0 l/m 0 min 0 min 0 W/m 12,9 km/h (3 Bft) 95,65 %
19.12.2022 21:18 7,4 C 6,7 C 3,3 C 91 % 1016,9 hPa 0,0 l/m 0 min 0 min 0 W/m 9,7 km/h (2 Bft) 97,87 %
19.12.2022 21:20 7,4 C 7,2 C 3,3 C 91 % 1016,8 hPa 0,0 l/m 0 min 0 min 0 W/m 9,7 km/h (2 Bft) 97,87 %
19.12.2022 21:22 7,5 C 7,2 C 3,3 C 91 % 1016,8 hPa 0,0 l/m 0 min 0 min 0 W/m 12,9 km/h (3 Bft) 97,87 %
19.12.2022 21:24 7,6 C 7,2 C 3,3 C 91 % 1016,8 hPa 0,0 l/m 0 min 0 min 0 W/m 12,9 km/h (3 Bft) 95,74 %
19.12.2022 21:26 7,6 C 7,2 C 3,3 C 91 % 1016,8 hPa 0,0 l/m 0 min 0 min 0 W/m 12,9 km/h (3 Bft) 97,87 %
19.12.2022 21:28 7,6 C 7,2 C 3,9 C 91 % 1016,8 hPa 0,0 l/m 0 min 0 min 0 W/m 19,3 km/h (3 Bft) 97,83 %
19.12.2022 21:30 7,7 C 7,8 C 3,9 C 91 % 1016,9 hPa 0,0 l/m 0 min 0 min 0 W/m 9,7 km/h (2 Bft) 97,87 %
19.12.2022 21:32 7,8 C 7,8 C 3,9 C 91 % 1016,9 hPa 0,0 l/m 0 min 0 min 0 W/m 9,7 km/h (2 Bft) 95,74 %
19.12.2022 21:34 7,9 C 7,8 C 3,9 C 91 % 1016,9 hPa 0,0 l/m 0 min 0 min 0 W/m 9,7 km/h (2 Bft) 93,62 %
19.12.2022 21:36 8,0 C 7,8 C 3,9 C 91 % 1016,9 hPa 0,0 l/m 0 min 0 min 0 W/m 16,1 km/h (3 Bft) 97,87 %
19.12.2022 21:38 8,1 C 7,8 C 3,9 C 91 % 1016,9 hPa 0,0 l/m 0 min 0 min 0 W/m 6,4 km/h (2 Bft) 95,74 %
19.12.2022 21:40 8,2 C 8,3 C 4,4 C 91 % 1016,9 hPa 0,0 l/m 0 min 0 min 0 W/m 12,9 km/h (3 Bft) 97,83 %
19.12.2022 21:42 8,3 C 8,3 C 4,4 C 91 % 1016,9 hPa 0,0 l/m 0 min 0 min 0 W/m 22,5 km/h (4 Bft) 95,74 %
19.12.2022 21:44 8,3 C 8,3 C 4,4 C 91 % 1016,9 hPa 0,0 l/m 0 min 0 min 0 W/m 16,1 km/h (3 Bft) 97,87 %
19.12.2022 21:46 8,4 C 8,3 C 4,4 C 91 % 1017,0 hPa 0,0 l/m 0 min 0 min 0 W/m 6,4 km/h (2 Bft) 97,87 %
19.12.2022 21:48 8,4 C 8,3 C 4,4 C 91 % 1016,9 hPa 0,0 l/m 0 min 0 min 0 W/m 6,4 km/h (2 Bft) 97,87 %
19.12.2022 21:50 8,4 C 8,3 C 4,4 C 91 % 1016,9 hPa 0,0 l/m 0 min 0 min 0 W/m 16,1 km/h (3 Bft) 95,74 %
19.12.2022 21:52 8,5 C 8,3 C 4,4 C 91 % 1016,9 hPa 0,0 l/m 0 min 0 min 0 W/m 12,9 km/h (3 Bft) 95,74 %
19.12.2022 21:54 8,5 C 8,3 C 4,4 C 91 % 1016,8 hPa 0,0 l/m 0 min 0 min 0 W/m 12,9 km/h (3 Bft) 97,83 %
19.12.2022 21:56 8,6 C 8,3 C 4,4 C 91 % 1016,8 hPa 0,0 l/m 0 min 0 min 0 W/m 9,7 km/h (2 Bft) 97,87 %
19.12.2022 21:58 8,6 C 8,3 C 4,4 C 91 % 1016,9 hPa 0,0 l/m 0 min 0 min 0 W/m 6,4 km/h (2 Bft) 97,87 %
19.12.2022 22:00 8,6 C 8,3 C 4,4 C 91 % 1016,9 hPa 0,0 l/m 0 min 0 min 0 W/m 12,9 km/h (3 Bft) 97,87 %
19.12.2022 22:02 8,6 C 8,3 C 4,4 C 91 % 1016,9 hPa 0,0 l/m 0 min 0 min 0 W/m 12,9 km/h (3 Bft) 95,74 %
19.12.2022 22:04 8,6 C 8,3 C 4,4 C 91 % 1016,9 hPa 0,0 l/m 0 min 0 min 0 W/m 12,9 km/h (3 Bft) 97,87 %
19.12.2022 22:06 8,6 C 8,3 C 4,4 C 91 % 1016,9 hPa 0,0 l/m 0 min 0 min 0 W/m 6,4 km/h (2 Bft) 97,83 %
19.12.2022 22:08 8,7 C 8,3 C 4,4 C 91 % 1016,9 hPa 0,0 l/m 0 min 0 min 0 W/m 6,4 km/h (2 Bft) 97,92 %
19.12.2022 22:10 8,7 C 8,3 C 4,4 C 91 % 1016,9 hPa 0,0 l/m 0 min 0 min 0 W/m 6,4 km/h (2 Bft) 97,87 %
19.12.2022 22:12 8,7 C 8,3 C 4,4 C 91 % 1016,8 hPa 0,0 l/m 0 min 0 min 0 W/m 6,4 km/h (2 Bft) 97,87 %
19.12.2022 22:14 8,7 C 8,3 C 4,4 C 91 % 1016,8 hPa 0,0 l/m 0 min 0 min 0 W/m 3,2 km/h (1 Bft) 97,87 %
19.12.2022 22:16 8,8 C 8,3 C 4,4 C 91 % 1016,8 hPa 0,0 l/m 0 min 0 min 0 W/m 6,4 km/h (2 Bft) 97,87 %
19.12.2022 22:18 8,8 C 8,3 C 4,4 C 91 % 1016,8 hPa 0,0 l/m 0 min 0 min 0 W/m 12,9 km/h (3 Bft) 97,83 %
19.12.2022 22:20 8,8 C 8,3 C 4,4 C 91 % 1016,8 hPa 0,0 l/m 0 min 0 min 0 W/m 6,4 km/h (2 Bft) 97,87 %
19.12.2022 22:22 8,8 C 8,3 C 4,4 C 91 % 1016,8 hPa 0,0 l/m 0 min 0 min 0 W/m 6,4 km/h (2 Bft) 95,74 %
19.12.2022 22:24 8,8 C 8,3 C 4,4 C 91 % 1016,8 hPa 0,0 l/m 0 min 0 min 0 W/m 3,2 km/h (1 Bft) 100,00 %
19.12.2022 22:26 8,8 C 8,3 C 4,4 C 91 % 1016,8 hPa 0,0 l/m 0 min 0 min 0 W/m 12,9 km/h (3 Bft) 100,00 %
19.12.2022 22:28 8,8 C 8,3 C 4,4 C 91 % 1016,8 hPa 0,0 l/m 0 min 0 min 0 W/m 6,4 km/h (2 Bft) 100,00 %
19.12.2022 22:30 8,8 C 8,3 C 4,4 C 91 % 1016,8 hPa 0,0 l/m 0 min 0 min 0 W/m 6,4 km/h (2 Bft) 97,87 %
19.12.2022 22:32 8,8 C 8,3 C 4,4 C 91 % 1016,9 hPa 0,0 l/m 0 min 0 min 0 W/m 3,2 km/h (1 Bft) 97,83 %
19.12.2022 22:34 8,8 C 8,3 C 4,4 C 91 % 1016,9 hPa 0,0 l/m 0 min 0 min 0 W/m 9,7 km/h (2 Bft) 97,87 %
19.12.2022 22:36 8,9 C 8,3 C 4,4 C 91 % 1016,9 hPa 0,0 l/m 0 min 0 min 0 W/m 9,7 km/h (2 Bft) 95,74 %
19.12.2022 22:38 8,9 C 8,3 C 4,4 C 91 % 1016,9 hPa 0,0 l/m 0 min 0 min 0 W/m 6,4 km/h (2 Bft) 97,87 %
19.12.2022 22:40 8,9 C 8,3 C 4,4 C 91 % 1016,8 hPa 0,0 l/m 0 min 0 min 0 W/m 6,4 km/h (2 Bft) 93,62 %
19.12.2022 22:42 9,0 C 8,3 C 4,4 C 91 % 1016,8 hPa 0,0 l/m 0 min 0 min 0 W/m 12,9 km/h (3 Bft) 97,83 %
19.12.2022 22:44 9,1 C 8,9 C 4,4 C 91 % 1016,7 hPa 0,0 l/m 0 min 0 min 0 W/m 16,1 km/h (3 Bft) 97,87 %
19.12.2022 22:46 9,1 C 8,9 C 5,0 C 91 % 1016,8 hPa 0,0 l/m 0 min 0 min 0 W/m 12,9 km/h (3 Bft) 95,74 %
19.12.2022 22:48 9,2 C 8,9 C 5,0 C 91 % 1016,7 hPa 0,0 l/m 0 min 0 min 0 W/m 6,4 km/h (2 Bft) 97,87 %
19.12.2022 22:50 9,2 C 8,9 C 5,0 C 92 % 1016,7 hPa 0,0 l/m 0 min 0 min 0 W/m 16,1 km/h (3 Bft) 97,87 %
19.12.2022 22:52 9,3 C 8,9 C 5,0 C 92 % 1016,7 hPa 0,0 l/m 0 min 0 min 0 W/m 16,1 km/h (3 Bft) 97,87 %
19.12.2022 22:54 9,3 C 8,9 C 5,0 C 92 % 1016,7 hPa 0,0 l/m 0 min 0 min 0 W/m 12,9 km/h (3 Bft) 97,87 %
19.12.2022 22:56 9,4 C 8,9 C 5,0 C 92 % 1016,7 hPa 0,0 l/m 0 min 0 min 0 W/m 6,4 km/h (2 Bft) 95,65 %
19.12.2022 22:58 9,4 C 8,9 C 5,0 C 91 % 1016,7 hPa 0,0 l/m 0 min 0 min 0 W/m 12,9 km/h (3 Bft) 97,87 %
19.12.2022 23:00 9,5 C 9,4 C 5,0 C 92 % 1016,7 hPa 0,0 l/m 0 min 0 min 0 W/m 16,1 km/h (3 Bft) 97,87 %
19.12.2022 23:02 9,6 C 9,4 C 5,0 C 92 % 1016,7 hPa 0,0 l/m 0 min 0 min 0 W/m 12,9 km/h (3 Bft) 97,87 %
19.12.2022 23:04 9,6 C 9,4 C 5,0 C 92 % 1016,6 hPa 0,0 l/m 0 min 0 min 0 W/m 12,9 km/h (3 Bft) 100,00 %
19.12.2022 23:06 9,6 C 9,4 C 5,0 C 91 % 1016,6 hPa 0,0 l/m 0 min 0 min 0 W/m 9,7 km/h (2 Bft) 97,87 %
19.12.2022 23:08 9,6 C 9,4 C 5,0 C 91 % 1016,6 hPa 0,0 l/m 0 min 0 min 0 W/m 6,4 km/h (2 Bft) 100,00 %
19.12.2022 23:10 9,7 C 9,4 C 5,0 C 91 % 1016,6 hPa 0,0 l/m 0 min 0 min 0 W/m 6,4 km/h (2 Bft) 100,00 %
19.12.2022 23:12 9,7 C 9,4 C 5,0 C 91 % 1016,7 hPa 0,0 l/m 0 min 0 min 0 W/m 12,9 km/h (3 Bft) 100,00 %
19.12.2022 23:14 9,7 C 9,4 C 5,0 C 91 % 1016,7 hPa 0,0 l/m 0 min 0 min 0 W/m 9,7 km/h (2 Bft) 100,00 %
19.12.2022 23:16 9,7 C 9,4 C 5,0 C 91 % 1016,7 hPa 0,0 l/m 0 min 0 min 0 W/m 12,9 km/h (3 Bft) 100,00 %
19.12.2022 23:18 9,8 C 9,4 C 5,0 C 91 % 1016,8 hPa 0,0 l/m 0 min 0 min 0 W/m 9,7 km/h (2 Bft) 100,00 %
19.12.2022 23:20 9,8 C 9,4 C 5,0 C 91 % 1016,8 hPa 0,0 l/m 0 min 0 min 0 W/m 9,7 km/h (2 Bft) 100,00 %
19.12.2022 23:22 9,8 C 9,4 C 5,0 C 91 % 1016,7 hPa 0,0 l/m 0 min 0 min 0 W/m 6,4 km/h (2 Bft) 97,83 %
19.12.2022 23:24 9,8 C 9,4 C 5,0 C 91 % 1016,7 hPa 0,0 l/m 0 min 0 min 0 W/m 12,9 km/h (3 Bft) 100,00 %
19.12.2022 23:26 9,8 C 9,4 C 5,0 C 91 % 1016,7 hPa 0,0 l/m 0 min 0 min 0 W/m 3,2 km/h (1 Bft) 100,00 %
19.12.2022 23:28 9,9 C 9,4 C 5,0 C 91 % 1016,7 hPa 0,0 l/m 0 min 0 min 0 W/m 3,2 km/h (1 Bft) 97,87 %
19.12.2022 23:30 9,9 C 9,4 C 5,0 C 91 % 1016,6 hPa 0,0 l/m 0 min 0 min 0 W/m 9,7 km/h (2 Bft) 100,00 %
19.12.2022 23:32 9,9 C 9,4 C 5,0 C 91 % 1016,6 hPa 0,0 l/m 0 min 0 min 0 W/m 6,4 km/h (2 Bft) 97,87 %
19.12.2022 23:34 9,9 C 9,4 C 5,0 C 91 % 1016,6 hPa 0,0 l/m 0 min 0 min 0 W/m 16,1 km/h (3 Bft) 97,83 %
19.12.2022 23:36 9,9 C 9,4 C 5,0 C 91 % 1016,5 hPa 0,0 l/m 0 min 0 min 0 W/m 12,9 km/h (3 Bft) 95,74 %
19.12.2022 23:38 9,9 C 9,4 C 5,0 C 91 % 1016,5 hPa 0,0 l/m 0 min 0 min 0 W/m 9,7 km/h (2 Bft) 97,87 %
19.12.2022 23:40 9,9 C 9,4 C 5,0 C 91 % 1016,5 hPa 0,0 l/m 0 min 0 min 0 W/m 12,9 km/h (3 Bft) 97,87 %
19.12.2022 23:42 9,9 C 9,4 C 5,0 C 91 % 1016,5 hPa 0,0 l/m 0 min 0 min 0 W/m 12,9 km/h (3 Bft) 95,74 %
19.12.2022 23:44 10,0 C 9,4 C 5,0 C 91 % 1016,6 hPa 0,0 l/m 0 min 0 min 0 W/m 12,9 km/h (3 Bft) 97,87 %
19.12.2022 23:46 10,0 C 9,4 C 5,0 C 91 % 1016,6 hPa 0,0 l/m 0 min 0 min 0 W/m 12,9 km/h (3 Bft) 97,83 %
19.12.2022 23:48 10,1 C 9,4 C 5,0 C 91 % 1016,6 hPa 0,0 l/m 0 min 0 min 0 W/m 6,4 km/h (2 Bft) 97,87 %
19.12.2022 23:50 10,1 C 9,4 C 5,0 C 90 % 1016,6 hPa 0,0 l/m 0 min 0 min 0 W/m 12,9 km/h (3 Bft) 95,74 %
19.12.2022 23:52 10,1 C 9,4 C 5,0 C 91 % 1016,5 hPa 0,0 l/m 0 min 0 min 0 W/m 19,3 km/h (3 Bft) 97,87 %
19.12.2022 23:54 10,1 C 9,4 C 5,6 C 91 % 1016,5 hPa 0,0 l/m 0 min 0 min 0 W/m 19,3 km/h (3 Bft) 97,87 %
19.12.2022 23:56 10,1 C 10,0 C 5,6 C 91 % 1016,5 hPa 0,0 l/m 0 min 0 min 0 W/m 12,9 km/h (3 Bft) 97,87 %
19.12.2022 23:58 10,2 C 10,0 C 5,6 C 90 % 1016,5 hPa 0,0 l/m 0 min 0 min 0 W/m 16,1 km/h (3 Bft) 95,74 %
_ Min-Zeit 00:00 00:00 00:00 23:50 16:10 - - - - 20:14 00:22
Minimum _ -0,8 C -1,7 C -4,4 C 90 % 1016,1 hPa - - - - 3,2 km/h (1 Bft) 44,68 %
_ Max-Zeit 23:58 23:56 23:54 07:42 00:00 05:12 13:20 00:08 13:20 03:14 00:00
Maximum _ 10,2 C 10,0 C 5,6 C 98 % 1022,1 hPa 0,4 l/m 2 min 4 min 143 W/m 48,3 km/h
S-SW (6 Bft)
100,00 %
Durchschnitt _ 4,1 C 3,6 C 0,3 C 94 % 1018,1 hPa #4,6 l/m #2 min. #4:30 h 49 W/m 18,8 km/h (3 Bft) 96,80 %
© 2022 W. Hausmann